EA1FJG Weather Reports


Display with metric or nautical units.
time (UTC)temp
F
wind
direction
speed
MPH
gust
MPH
rain 1hr
in
rain 24hr
in
rain mn
in
humidity
%
barometer
mb
20260904071803 61 16 1.0 2.0 0.00 0.00 0.00 99 1022.4
20260904071703 61 29 1.0 2.0 0.00 0.00 0.00 99 1022.3
20260904071603 61 29 1.0 2.0 0.00 0.00 0.00 99 1022.3
20260904071504 61 39 1.0 2.0 0.00 0.00 0.00 99 1022.3
20260904071403 61 34 1.0 2.0 0.00 0.00 0.00 99 1022.4
20260904071303 61 32 1.0 2.0 0.00 0.00 0.00 99 1022.4
20260904071224 61 32 1.0 2.0 0.00 0.00 0.00 99 1022.4
20260904071103 61 26 1.0 2.0 0.00 0.00 0.00 99 1022.2
20260904071003 61 31 1.0 2.0 0.00 0.00 0.00 99 1022.2
20260904070903 61 36 1.0 2.0 0.00 0.00 0.00 99 1022.0
20260904070803 61 36 1.0 2.0 0.00 0.00 0.00 99 1022.0
20260904070703 61 23 1.0 2.0 0.00 0.00 0.00 99 1022.2
20260904070603 61 11 1.0 2.0 0.00 0.00 0.00 99 1022.0
20260904070503 61 10 1.0 2.0 0.00 0.00 0.00 99 1022.1
20260904070403 61 10 1.0 2.0 0.00 0.00 0.00 99 1022.1
20260904070324 61 7 1.0 2.0 0.00 0.00 0.00 99 1021.9
20260904070203 61 8 1.0 2.0 0.00 0.00 0.00 99 1022.0
20260904070124 61 10 1.0 2.0 0.00 0.00 0.00 99 1022.1
20260904070024 61 10 1.0 2.0 0.00 0.00 0.00 99 1022.0
20260904065903 61 14 1.0 2.0 0.00 0.00 0.00 99 1021.9
20260904065824 61 17 1.0 2.0 0.00 0.00 0.00 99 1022.0
20260904065703 61 25 1.0 1.0 0.00 0.00 0.00 99 1021.8
20260904065603 61 25 1.0 1.0 0.00 0.00 0.00 99 1021.8
20260904065524 61 27 1.0 1.0 0.00 0.00 0.00 99 1021.9
20260904065403 61 30 1.0 1.0 0.00 0.00 0.00 99 1021.8
20260904065306 61 32 1.0 1.0 0.00 0.00 0.00 99 1021.8
20260904065203 61 32 1.0 1.0 0.00 0.00 0.00 99 1021.8
20260904065124 61 33 1.0 1.0 0.00 0.00 0.00 99 1021.8
20260904065003 61 31 1.0 1.0 0.00 0.00 0.00 99 1021.7
20260904064903 61 31 1.0 1.0 0.00 0.00 0.00 99 1021.7
20260904064803 61 31 1.0 1.0 0.00 0.00 0.00 99 1021.7
20260904064724 61 30 0.0 1.0 0.00 0.00 0.00 99 1021.8
20260904064603 61 30 0.0 1.0 0.00 0.00 0.00 99 1021.8
20260904064503 61 29 0.0 1.0 0.00 0.00 0.00 99 1021.6
20260904064424 61 29 0.0 1.0 0.00 0.00 0.00 99 1021.6
20260904064303 61 29 0.0 1.0 0.00 0.00 0.00 99 1021.7
20260904064203 61 29 0.0 1.0 0.00 0.00 0.00 99 1021.7
20260904064103 61 29 0.0 1.0 0.00 0.00 0.00 99 1021.6
20260904064003 61 29 0.0 1.0 0.00 0.00 0.00 99 1021.6
20260904063924 61 30 0.0 1.0 0.00 0.00 0.00 99 1021.6
20260904063803 61 30 0.0 1.0 0.00 0.00 0.00 99 1021.7
20260904063704 61 30 0.0 1.0 0.00 0.00 0.00 99 1021.5
20260904063624 61 30 0.0 1.0 0.00 0.00 0.00 99 1021.5
20260904063503 61 29 0.0 1.0 0.00 0.00 0.00 99 1021.6
20260904063403 61 29 0.0 1.0 0.00 0.00 0.00 99 1021.5
20260904063324 61 30 0.0 1.0 0.00 0.00 0.00 99 1021.6
20260904063203 61 30 0.0 1.0 0.00 0.00 0.00 99 1021.4
20260904063103 61 29 0.0 1.0 0.00 0.00 0.00 99 1021.3
20260904063024 61 29 1.0 1.0 0.00 0.00 0.00 99 1021.3
20260904062903 61 28 1.0 1.0 0.00 0.00 0.00 99 1021.3
20260904062803 61 29 1.0 1.0 0.00 0.00 0.00 99 1021.2
20260904062703 61 29 0.0 1.0 0.00 0.00 0.00 99 1021.4
20260904062603 61 29 0.0 1.0 0.00 0.00 0.00 99 1021.4
20260904062503 61 29 1.0 1.0 0.00 0.00 0.00 99 1021.4
20260904062403 61 29 1.0 1.0 0.00 0.00 0.00 99 1021.4
20260904062306 61 28 1.0 1.0 0.00 0.00 0.00 99 1021.4
20260904062203 61 29 1.0 1.0 0.00 0.00 0.00 99 1021.2
20260904062103 61 31 1.0 1.0 0.00 0.00 0.00 99 1021.2
20260904062003 61 31 1.0 1.0 0.00 0.00 0.00 99 1021.2
20260904061903 61 33 1.0 1.0 0.00 0.00 0.00 99 1021.0
20260904061803 61 33 1.0 1.0 0.00 0.00 0.00 99 1021.4
20260904061703 61 33 1.0 1.0 0.00 0.00 0.00 99 1021.1
20260904061603 61 33 1.0 1.0 0.00 0.00 0.00 99 1021.1
20260904061503 61 34 1.0 1.0 0.00 0.00 0.00 99 1021.1
20260904061403 61 34 1.0 1.0 0.00 0.00 0.00 99 1021.2
20260904061303 61 34 1.0 1.0 0.00 0.00 0.00 99 1021.2
20260904061203 61 34 1.0 1.0 0.00 0.00 0.00 99 1021.2
20260904061104 61 34 1.0 1.0 0.00 0.00 0.00 99 1021.0
20260904061003 61 34 1.0 1.0 0.00 0.00 0.00 99 1021.1
20260904060903 61 33 0.0 1.0 0.00 0.00 0.00 99 1021.1
20260904060803 61 33 0.0 1.0 0.00 0.00 0.00 99 1021.1
20260904060703 61 34 0.0 1.0 0.00 0.00 0.00 99 1021.1
20260904060603 61 34 0.0 1.0 0.00 0.00 0.00 99 1021.2
20260904060503 61 32 0.0 1.0 0.00 0.00 0.00 99 1021.1
20260904060403 61 32 0.0 1.0 0.00 0.00 0.00 99 1021.1
20260904060303 61 32 0.0 1.0 0.00 0.00 0.00 99 1021.1
20260904060204 61 32 0.0 1.0 0.00 0.00 0.00 99 1021.1
20260904060103 61 32 0.0 1.0 0.00 0.00 0.00 99 1021.2
20260904060003 61 32 0.0 1.0 0.00 0.00 0.00 99 1021.0
20260904055903 61 32 0.0 1.0 0.00 0.00 0.00 99 1021.1
20260904055824 61 32 0.0 1.0 0.00 0.00 0.00 99 1021.1
20260904055703 61 30 0.0 1.0 0.00 0.00 0.00 99 1020.9
20260904055603 61 30 0.0 1.0 0.00 0.00 0.00 99 1020.9
20260904055503 61 30 0.0 1.0 0.00 0.00 0.00 99 1020.9
20260904055403 61 32 0.0 1.0 0.00 0.00 0.00 99 1020.9
20260904055306 61 32 0.0 1.0 0.00 0.00 0.00 99 1020.9
20260904055203 61 32 0.0 1.0 0.00 0.00 0.00 99 1020.9
20260904055103 60 32 0.0 1.0 0.00 0.00 0.00 99 1021.0
20260904055003 60 32 0.0 1.0 0.00 0.00 0.00 99 1021.0
20260904054903 60 34 0.0 1.0 0.00 0.00 0.00 99 1021.0
20260904054803 60 34 0.0 1.0 0.00 0.00 0.00 99 1021.0
20260904054703 60 34 0.0 1.0 0.00 0.00 0.00 99 1020.9
20260904054603 60 35 1.0 1.0 0.00 0.00 0.00 99 1020.8
20260904054503 60 35 1.0 1.0 0.00 0.00 0.00 99 1021.0
20260904054403 60 36 1.0 1.0 0.00 0.00 0.00 99 1020.8
20260904054324 60 38 1.0 1.0 0.00 0.00 0.00 99 1020.9
20260904054204 60 38 1.0 1.0 0.00 0.00 0.00 99 1021.0
20260904054103 60 39 1.0 2.0 0.00 0.00 0.00 99 1021.0
20260904054003 60 41 1.0 2.0 0.00 0.00 0.00 99 1020.7
20260904053903 60 40 1.0 2.0 0.00 0.00 0.00 99 1021.0
20260904053803 60 40 1.0 2.0 0.00 0.00 0.00 99 1020.9
20260904053703 60 40 1.0 2.0 0.00 0.00 0.00 99 1020.8
20260904053624 60 40 1.0 2.0 0.00 0.00 0.00 99 1020.8
20260904053503 60 40 1.0 2.0 0.00 0.00 0.00 99 1020.8
20260904053403 60 39 1.0 2.0 0.00 0.00 0.00 99 1020.9
20260904053303 60 39 1.0 2.0 0.00 0.00 0.00 99 1020.8
20260904053203 60 38 1.0 2.0 0.00 0.00 0.00 99 1020.8
20260904053103 61 35 1.0 1.0 0.00 0.00 0.00 99 1020.8
20260904053024 61 34 1.0 1.0 0.00 0.00 0.00 99 1020.8
20260904052903 61 33 1.0 1.0 0.00 0.00 0.00 99 1020.8
20260904052824 61 33 1.0 1.0 0.00 0.00 0.00 99 1020.9
20260904052703 61 32 1.0 1.0 0.00 0.00 0.00 99 1020.6
20260904052603 61 32 1.0 1.0 0.00 0.00 0.00 99 1020.7
20260904052503 61 31 1.0 1.0 0.00 0.00 0.00 99 1020.7
20260904052403 61 31 1.0 1.0 0.00 0.00 0.00 99 1020.7
20260904052306 61 31 0.0 1.0 0.00 0.00 0.00 99 1020.7
20260904052203 61 30 0.0 1.0 0.00 0.00 0.00 99 1020.7
20260904052103 61 28 0.0 1.0 0.00 0.00 0.00 99 1020.8
20260904052003 61 28 0.0 1.0 0.00 0.00 0.00 99 1020.8
20260904051924 60 28 0.0 1.0 0.00 0.00 0.00 99 1020.6
20260904051824 60 28 0.0 1.0 0.00 0.00 0.00 99 1020.8
20260904051703 60 28 0.0 1.0 0.00 0.00 0.00 99 1020.7
20260904051603 60 28 0.0 1.0 0.00 0.00 0.00 99 1020.7
20260904051503 60 0 0.0 0.0 0.00 0.00 0.00 99 1020.8
20260904051403 60 0 0.0 0.0 0.00 0.00 0.00 99 1020.8
20260904051303 60 35 0.0 1.0 0.00 0.00 0.00 99 1020.8
20260904051203 60 35 0.0 1.0 0.00 0.00 0.00 99 1020.8
20260904051124 60 35 0.0 1.0 0.00 0.00 0.00 99 1020.7
20260904051003 60 36 0.0 1.0 0.00 0.00 0.00 99 1020.8
20260904050903 60 36 0.0 1.0 0.00 0.00 0.00 99 1020.7
20260904050803 60 36 0.0 1.0 0.00 0.00 0.00 99 1020.7
20260904050704 60 35 0.0 1.0 0.00 0.00 0.00 99 1020.6
20260904050603 60 35 1.0 1.0 0.00 0.01 0.00 99 1020.7
20260904050503 60 36 1.0 1.0 0.00 0.01 0.00 99 1020.8
20260904050403 60 36 1.0 1.0 0.00 0.01 0.00 99 1020.9
20260904050303 60 35 1.0 1.0 0.00 0.01 0.00 99 1020.6
20260904050203 60 35 1.0 1.0 0.00 0.01 0.00 99 1020.7
20260904050124 60 35 1.0 1.0 0.00 0.01 0.00 99 1020.6
20260904050003 60 34 1.0 1.0 0.00 0.01 0.00 99 1020.8
20260904045903 60 34 1.0 1.0 0.00 0.01 0.00 99 1020.8
20260904045803 60 34 1.0 1.0 0.00 0.01 0.00 99 1020.8
20260904045703 60 33 0.0 1.0 0.00 0.01 0.00 99 1020.6
20260904045603 60 33 0.0 1.0 0.00 0.01 0.00 99 1020.6
20260904045524 60 33 0.0 1.0 0.00 0.01 0.00 99 1020.9
20260904045403 60 32 0.0 1.0 0.00 0.01 0.00 99 1020.8
20260904045324 60 32 0.0 1.0 0.00 0.01 0.00 99 1020.8
20260904045203 60 32 0.0 1.0 0.00 0.01 0.00 99 1020.9
20260904045103 60 31 0.0 1.0 0.00 0.01 0.00 99 1020.9
20260904045003 60 31 0.0 1.0 0.00 0.01 0.00 99 1020.6
20260904044924 60 32 0.0 1.0 0.00 0.01 0.00 99 1020.8
20260904044804 60 32 0.0 1.0 0.00 0.01 0.00 99 1021.0
20260904044703 60 32 0.0 1.0 0.00 0.01 0.00 99 1020.8
20260904044603 60 32 0.0 1.0 0.00 0.01 0.00 99 1020.7
20260904044503 60 32 0.0 1.0 0.00 0.01 0.00 99 1020.7
20260904044403 60 32 0.0 1.0 0.00 0.01 0.00 99 1020.7
20260904044303 60 33 1.0 1.0 0.00 0.01 0.00 99 1020.8
20260904044203 60 32 1.0 1.0 0.00 0.01 0.00 99 1020.6
20260904044124 60 33 1.0 1.0 0.00 0.01 0.00 99 1020.8
20260904044003 60 33 1.0 1.0 0.00 0.01 0.00 99 1020.8
20260904043903 60 34 1.0 1.0 0.00 0.01 0.00 99 1020.7
20260904043804 60 34 1.0 1.0 0.00 0.01 0.00 99 1020.7
20260904043724 60 33 1.0 1.0 0.00 0.01 0.00 99 1020.8
20260904043624 60 34 1.0 1.0 0.00 0.01 0.00 99 1020.7
20260904043524 60 33 1.0 1.0 0.00 0.01 0.00 99 1020.7
20260904043403 60 33 1.0 1.0 0.00 0.01 0.00 99 1020.8
20260904043325 60 32 1.0 1.0 0.00 0.01 0.00 99 1020.9
20260904043203 60 32 1.0 1.0 0.00 0.01 0.00 99 1020.9
20260904043103 60 33 1.0 1.0 0.00 0.01 0.00 99 1020.7
20260904043024 60 33 1.0 1.0 0.00 0.01 0.00 99 1020.8
20260904042903 60 34 1.0 1.0 0.00 0.01 0.00 99 1020.9
20260904042824 60 34 1.0 1.0 0.00 0.01 0.00 99 1020.9
20260904042703 60 33 1.0 1.0 0.00 0.01 0.00 99 1020.9
20260904042624 60 34 1.0 1.0 0.00 0.01 0.00 99 1020.8
20260904042524 60 35 1.0 1.0 0.00 0.01 0.00 99 1020.8
20260904042403 60 36 1.0 1.0 0.00 0.01 0.00 99 1020.8
20260904042306 60 37 1.0 1.0 0.00 0.01 0.00 99 1020.8
20260904042224 60 37 1.0 2.0 0.00 0.01 0.00 99 1020.8
20260904042103 60 37 1.0 2.0 0.00 0.01 0.00 99 1020.7
20260904042003 60 37 1.0 2.0 0.00 0.01 0.00 99 1020.7
20260904041903 60 36 1.0 2.0 0.00 0.01 0.00 99 1020.9
20260904041824 60 35 1.0 2.0 0.00 0.01 0.00 99 1020.9
20260904041703 60 34 1.0 2.0 0.00 0.01 0.00 99 1020.8
20260904041603 60 34 1.0 2.0 0.00 0.01 0.00 99 1020.8
20260904041524 60 30 1.0 2.0 0.00 0.01 0.00 99 1020.9
20260904041403 60 23 1.0 2.0 0.00 0.01 0.00 99 1020.9
20260904041303 60 17 1.0 2.0 0.00 0.01 0.00 99 1020.8
20260904041224 60 17 1.0 2.0 0.00 0.01 0.00 99 1020.8
20260904041103 60 12 1.0 1.0 0.00 0.01 0.00 99 1020.7
20260904041003 60 8 1.0 1.0 0.00 0.01 0.00 99 1020.9
20260904040903 60 360 1.0 1.0 0.00 0.01 0.00 99 1021.0
20260904040803 60 360 1.0 1.0 0.00 0.01 0.00 99 1021.0
20260904040703 60 355 0.0 1.0 0.00 0.01 0.00 99 1020.9
20260904040603 60 350 0.0 1.0 0.00 0.01 0.00 99 1020.9
20260904040524 60 350 0.0 1.0 0.00 0.01 0.00 99 1020.9
20260904040424 60 350 0.0 1.0 0.00 0.01 0.00 99 1020.9
20260904040303 61 350 0.0 1.0 0.00 0.01 0.00 99 1020.8
20260904040204 61 350 0.0 1.0 0.00 0.01 0.00 99 1021.1
20260904040103 61 350 0.0 1.0 0.00 0.01 0.00 99 1021.0
20260904040004 61 350 0.0 1.0 0.00 0.01 0.00 99 1021.0
20260904035903 61 350 0.0 1.0 0.00 0.01 0.00 99 1021.0
20260904035824 61 350 0.0 1.0 0.00 0.01 0.00 99 1020.9
20260904035724 61 350 0.0 1.0 0.00 0.01 0.00 99 1020.8
20260904035624 61 350 0.0 1.0 0.00 0.01 0.00 99 1020.9
20260904035503 61 350 0.0 1.0 0.00 0.01 0.00 99 1021.0
20260904035403 61 350 0.0 1.0 0.00 0.01 0.00 99 1020.9
20260904035324 61 350 0.0 1.0 0.00 0.01 0.00 99 1021.1
20260904035203 61 350 0.0 1.0 0.00 0.01 0.00 99 1021.0
20260904035103 61 350 0.0 1.0 0.00 0.01 0.00 99 1021.0
20260904035003 61 350 0.0 1.0 0.00 0.01 0.00 99 1021.0
20260904034903 61 350 0.0 1.0 0.00 0.01 0.00 99 1021.0
20260904034803 61 350 0.0 1.0 0.00 0.01 0.00 99 1021.0
20260904034703 61 350 0.0 1.0 0.00 0.01 0.00 99 1021.0
20260904034624 61 350 0.0 1.0 0.00 0.01 0.00 99 1021.0
20260904034504 61 350 0.0 1.0 0.00 0.01 0.00 99 1021.0
20260904034403 61 350 0.0 1.0 0.00 0.01 0.00 99 1021.0
20260904034303 61 350 0.0 1.0 0.00 0.01 0.00 99 1021.0
20260904034203 61 350 0.0 1.0 0.00 0.01 0.00 99 1021.0
20260904034124 61 350 0.0 1.0 0.00 0.01 0.00 99 1021.2
20260904034003 61 350 0.0 1.0 0.00 0.01 0.00 99 1021.1
20260904033904 61 0 0.0 0.0 0.00 0.01 0.00 99 1021.2
20260904033803 61 350 0.0 1.0 0.00 0.01 0.00 99 1021.2
20260904033703 61 350 0.0 1.0 0.00 0.01 0.00 99 1021.1
20260904033603 61 350 0.0 1.0 0.00 0.01 0.00 99 1021.1
20260904033503 61 350 0.0 1.0 0.00 0.01 0.00 99 1021.1
20260904033403 61 350 0.0 1.0 0.00 0.01 0.00 99 1020.9
20260904033303 61 350 0.0 1.0 0.00 0.01 0.00 99 1021.1
20260904033203 61 350 0.0 1.0 0.00 0.01 0.00 99 1021.1
20260904033103 61 350 0.0 1.0 0.00 0.01 0.00 99 1021.2
20260904033003 61 350 0.0 1.0 0.00 0.01 0.00 99 1021.1
20260904032903 60 0 0.0 0.0 0.00 0.01 0.00 99 1021.1
20260904032803 60 0 0.0 0.0 0.00 0.01 0.00 99 1021.1
20260904032703 60 0 0.0 0.0 0.00 0.01 0.00 99 1021.0
20260904032624 60 0 0.0 0.0 0.00 0.01 0.00 99 1021.0
20260904032504 60 0 0.0 0.0 0.00 0.01 0.00 99 1020.9
20260904032403 60 0 0.0 0.0 0.00 0.01 0.00 99 1021.0
20260904032305 60 0 0.0 0.0 0.00 0.01 0.00 99 1021.0
20260904032203 60 0 0.0 0.0 0.00 0.01 0.00 99 1021.1
20260904032103 60 0 0.0 0.0 0.00 0.01 0.00 99 1020.9
20260904032003 60 0 0.0 0.0 0.00 0.01 0.00 99 1020.9
20260904031903 60 0 0.0 0.0 0.00 0.01 0.00 99 1021.2
20260904031803 60 0 0.0 0.0 0.00 0.01 0.00 99 1020.9
20260904031702 60 0 0.0 0.0 0.00 0.01 0.00 99 1020.9
20260904031602 60 0 0.0 0.0 0.00 0.01 0.00 99 1020.9
20260904031503 60 350 0.0 1.0 0.00 0.01 0.00 99 1021.1
20260904031403 60 350 0.0 1.0 0.00 0.01 0.00 99 1021.1
20260904031303 60 350 0.0 1.0 0.00 0.01 0.00 99 1021.0
20260904031203 60 350 0.0 1.0 0.00 0.01 0.00 99 1021.0
20260904031103 60 350 0.0 1.0 0.00 0.01 0.00 99 1021.1
20260904031003 60 350 0.0 1.0 0.00 0.01 0.00 99 1021.2
20260904030903 61 350 0.0 1.0 0.00 0.01 0.00 99 1021.1
20260904030803 61 350 0.0 1.0 0.00 0.01 0.00 99 1021.1
20260904030703 61 350 0.0 1.0 0.00 0.01 0.00 99 1021.1
20260904030603 61 350 0.0 1.0 0.00 0.01 0.00 99 1021.2
20260904030502 61 0 0.0 0.0 0.00 0.01 0.00 99 1021.1
20260904030402 61 0 0.0 0.0 0.00 0.01 0.00 99 1021.1
20260904030302 61 0 0.0 0.0 0.00 0.01 0.00 99 1021.1
20260904030203 61 0 0.0 0.0 0.00 0.01 0.00 99 1021.1
20260904030003 60 0 0.0 0.0 0.00 0.01 0.00 99 1021.2
20260904025903 60 350 0.0 1.0 0.00 0.01 0.00 99 1021.1
20260904025803 60 350 0.0 1.0 0.00 0.01 0.00 99 1021.1
20260904025703 60 350 0.0 1.0 0.00 0.01 0.00 99 1021.3
20260904025603 60 350 0.0 1.0 0.00 0.01 0.00 99 1021.3
20260904025503 60 350 0.0 1.0 0.00 0.01 0.00 99 1021.2
20260904025403 60 350 0.0 1.0 0.00 0.01 0.00 99 1021.2
20260904025306 60 350 0.0 1.0 0.00 0.01 0.00 99 1021.1
20260904025203 60 350 0.0 1.0 0.00 0.01 0.00 99 1021.1
20260904025103 60 350 0.0 1.0 0.00 0.01 0.00 99 1021.2
20260904025024 60 350 0.0 1.0 0.00 0.01 0.00 99 1021.0
20260904024903 60 350 0.0 1.0 0.00 0.01 0.00 99 1021.3
20260904024803 60 350 0.0 1.0 0.00 0.01 0.00 99 1021.3
20260904024702 60 350 0.0 1.0 0.00 0.01 0.00 99 1021.1
20260904024603 60 350 0.0 1.0 0.00 0.01 0.00 99 1021.1
20260904024503 60 350 0.0 1.0 0.00 0.01 0.00 99 1021.2
20260904024403 60 350 0.0 1.0 0.00 0.01 0.00 99 1021.2
20260904024302 60 350 0.0 1.0 0.00 0.01 0.00 99 1021.2
20260904024203 60 350 0.0 1.0 0.00 0.01 0.00 99 1021.0
20260904024102 60 350 0.0 1.0 0.00 0.01 0.00 99 1021.1
20260904024002 60 350 0.0 1.0 0.00 0.01 0.00 99 1021.1
20260904023903 60 350 0.0 1.0 0.00 0.01 0.00 99 1021.0
20260904023803 60 350 0.0 1.0 0.00 0.01 0.00 99 1021.1
20260904023703 60 0 0.0 0.0 0.00 0.01 0.00 99 1021.0
20260904023603 60 0 0.0 0.0 0.00 0.01 0.00 99 1021.0
20260904023503 60 0 0.0 0.0 0.00 0.01 0.00 99 1021.0
20260904023424 60 0 0.0 0.0 0.00 0.01 0.00 99 1021.1
20260904023303 60 0 0.0 0.0 0.00 0.01 0.00 99 1021.0
20260904023203 60 0 0.0 0.0 0.00 0.01 0.00 99 1021.0
20260904023103 60 350 0.0 1.0 0.00 0.01 0.00 99 1021.0
20260904023003 60 350 0.0 1.0 0.00 0.01 0.00 99 1021.0
20260904022903 60 350 0.0 1.0 0.00 0.01 0.00 99 1021.2
20260904022824 60 350 0.0 1.0 0.00 0.01 0.00 99 1021.1
20260904022724 60 350 0.0 1.0 0.00 0.01 0.00 99 1021.0
20260904022624 60 350 0.0 1.0 0.00 0.01 0.00 99 1021.3
20260904022503 60 350 0.0 1.0 0.00 0.01 0.00 99 1021.2
20260904022403 60 350 0.0 1.0 0.00 0.01 0.00 99 1021.2
20260904022305 61 350 0.0 1.0 0.00 0.01 0.00 99 1021.1
20260904022224 61 350 0.0 1.0 0.00 0.01 0.00 99 1021.2
20260904022103 61 0 0.0 0.0 0.00 0.01 0.00 99 1021.1
20260904022024 61 0 0.0 0.0 0.00 0.01 0.00 99 1021.2
20260904021903 61 0 0.0 0.0 0.00 0.01 0.00 99 1021.3
20260904021803 61 0 0.0 0.0 0.00 0.01 0.00 99 1021.1
20260904021703 61 0 0.0 0.0 0.00 0.01 0.00 99 1021.2
20260904021603 61 350 0.0 1.0 0.00 0.01 0.00 99 1021.2
20260904021503 61 350 0.0 1.0 0.00 0.01 0.00 99 1021.1
20260904021403 61 350 0.0 1.0 0.00 0.01 0.00 99 1021.1
20260904021303 61 350 0.0 1.0 0.00 0.01 0.00 99 1021.4
20260904021202 61 350 0.0 1.0 0.00 0.01 0.00 99 1021.2
20260904021103 61 350 0.0 1.0 0.00 0.01 0.00 99 1021.2
20260904021003 61 350 0.0 1.0 0.00 0.01 0.00 99 1021.2
20260904020903 61 350 0.0 1.0 0.00 0.01 0.00 99 1021.1
20260904020803 61 350 0.0 1.0 0.00 0.01 0.00 99 1021.2
20260904020703 62 350 1.0 1.0 0.00 0.01 0.00 99 1021.1
20260904020602 62 350 1.0 1.0 0.00 0.01 0.00 99 1021.1
20260904020524 61 350 1.0 1.0 0.00 0.01 0.00 99 1021.0
20260904020424 61 350 1.0 1.0 0.00 0.01 0.00 99 1021.2
20260904020324 61 350 1.0 1.0 0.00 0.01 0.00 99 1021.1
20260904020203 61 350 1.0 1.0 0.00 0.01 0.00 99 1021.2
20260904020003 61 350 1.0 1.0 0.00 0.01 0.00 99 1021.1
20260904015903 61 350 1.0 1.0 0.00 0.01 0.00 99 1021.1
20260904015803 61 350 0.0 1.0 0.00 0.01 0.00 99 1021.3
20260904015703 61 350 0.0 1.0 0.00 0.01 0.00 99 1021.1
20260904015603 61 350 0.0 1.0 0.00 0.01 0.00 99 1021.2
20260904015503 61 350 0.0 1.0 0.00 0.01 0.00 99 1021.3
20260904015403 61 350 0.0 1.0 0.00 0.01 0.00 99 1021.3
20260904015306 61 350 0.0 1.0 0.00 0.01 0.00 99 1021.3
20260904015203 61 350 0.0 1.0 0.00 0.01 0.00 99 1021.4
20260904015124 61 350 0.0 1.0 0.00 0.01 0.00 99 1021.3
20260904015003 61 350 0.0 1.0 0.00 0.01 0.00 99 1021.4
20260904014903 61 350 0.0 1.0 0.00 0.01 0.00 99 1021.2
20260904014803 61 350 0.0 1.0 0.00 0.01 0.00 99 1021.1
20260904014703 61 350 0.0 1.0 0.00 0.01 0.00 99 1021.5
20260904014624 61 350 0.0 1.0 0.00 0.01 0.00 99 1021.3
20260904014503 61 350 0.0 1.0 0.00 0.01 0.00 99 1021.3
20260904014403 61 350 0.0 1.0 0.00 0.01 0.00 99 1021.4
20260904014303 61 350 0.0 1.0 0.00 0.01 0.00 99 1021.4
20260904014203 61 350 0.0 1.0 0.00 0.01 0.00 99 1021.4
20260904014103 61 350 0.0 1.0 0.00 0.01 0.00 99 1021.4
20260904014003 61 0 0.0 0.0 0.00 0.01 0.00 99 1021.3
20260904013903 61 350 0.0 1.0 0.00 0.01 0.00 99 1021.4
20260904013803 61 350 0.0 1.0 0.00 0.01 0.00 99 1021.5
20260904013724 62 350 0.0 1.0 0.00 0.01 0.00 99 1021.5
20260904013603 62 350 0.0 1.0 0.00 0.01 0.00 99 1021.5
20260904013524 62 350 0.0 1.0 0.00 0.01 0.00 99 1021.5
20260904013424 62 350 0.0 1.0 0.00 0.01 0.00 99 1021.5
20260904013303 62 350 0.0 1.0 0.00 0.01 0.00 99 1021.5
20260904013203 62 350 0.0 1.0 0.00 0.01 0.00 99 1021.7
20260904013103 62 350 0.0 1.0 0.00 0.01 0.00 99 1021.5
20260904013003 62 350 0.0 1.0 0.00 0.01 0.00 99 1021.7
20260904012903 62 350 0.0 1.0 0.00 0.01 0.00 99 1021.7
20260904012803 62 350 0.0 1.0 0.00 0.01 0.00 99 1021.7
20260904012703 62 350 0.0 1.0 0.00 0.01 0.00 99 1021.8
20260904012603 62 0 0.0 0.0 0.00 0.01 0.00 99 1021.6
20260904012503 62 0 0.0 0.0 0.00 0.01 0.00 99 1021.9
20260904012403 62 0 0.0 0.0 0.00 0.01 0.00 99 1021.8
20260904012306 62 0 0.0 0.0 0.00 0.01 0.00 99 1021.7
20260904012203 62 0 0.0 0.0 0.00 0.01 0.00 99 1021.9
20260904012103 62 0 0.0 0.0 0.00 0.01 0.00 99 1021.8
20260904012003 62 0 0.0 0.0 0.00 0.01 0.00 99 1021.8
20260904011903 62 0 0.0 0.0 0.00 0.01 0.00 99 1021.7
20260904011803 62 0 0.0 0.0 0.00 0.01 0.00 99 1021.6
20260904011703 62 0 0.0 0.0 0.00 0.01 0.00 99 1021.6
20260904011603 62 0 0.0 0.0 0.00 0.01 0.00 99 1021.8
20260904011503 62 0 0.0 0.0 0.00 0.01 0.00 99 1021.6
20260904011403 62 0 0.0 0.0 0.00 0.01 0.00 99 1021.6
20260904011303 62 0 0.0 0.0 0.00 0.01 0.00 99 1021.7
20260904011203 62 0 0.0 0.0 0.00 0.01 0.00 99 1021.6
20260904011103 62 0 0.0 0.0 0.00 0.01 0.00 99 1021.6
20260904011003 62 0 0.0 0.0 0.00 0.01 0.00 99 1021.7
20260904010903 62 0 0.0 0.0 0.00 0.01 0.00 99 1021.7
20260904010803 62 0 0.0 0.0 0.00 0.01 0.00 99 1021.7
20260904010703 62 0 0.0 0.0 0.00 0.01 0.00 99 1021.7
20260904010603 62 0 0.0 0.0 0.00 0.01 0.00 99 1021.7
20260904010503 62 0 0.0 0.0 0.00 0.01 0.00 99 1021.8
20260904010403 62 0 0.0 0.0 0.00 0.01 0.00 99 1021.7
20260904010303 62 0 0.0 0.0 0.00 0.01 0.00 99 1021.9
20260904010203 62 0 0.0 0.0 0.00 0.01 0.00 99 1021.6
20260904010003 62 350 0.0 1.0 0.00 0.01 0.00 99 1021.6
20260904005903 62 350 0.0 1.0 0.00 0.01 0.00 99 1021.8
20260904005803 62 350 0.0 1.0 0.00 0.01 0.00 99 1021.7
20260904005703 62 350 0.0 1.0 0.00 0.01 0.00 99 1021.6
20260904005603 62 350 0.0 1.0 0.00 0.01 0.00 99 1021.6
20260904005503 62 350 0.0 1.0 0.00 0.01 0.00 98 1021.7
20260904005403 62 350 0.0 1.0 0.00 0.01 0.00 98 1021.6
20260904005306 62 350 0.0 1.0 0.00 0.01 0.00 98 1021.6
20260904005203 62 350 0.0 1.0 0.00 0.01 0.00 98 1021.8
20260904005103 62 350 0.0 1.0 0.00 0.01 0.00 98 1021.8
20260904005003 62 350 0.0 1.0 0.00 0.01 0.00 98 1021.7
20260904004924 63 350 0.0 1.0 0.00 0.01 0.00 98 1022.0
20260904004824 63 350 0.0 1.0 0.00 0.01 0.00 98 1021.7
20260904004724 63 350 0.0 1.0 0.00 0.01 0.00 98 1021.8
20260904004624 62 350 0.0 1.0 0.00 0.01 0.00 98 1021.7
20260904004503 62 350 0.0 1.0 0.00 0.01 0.00 98 1021.7
20260904004424 62 350 0.0 1.0 0.00 0.01 0.00 98 1021.6
20260904004303 62 350 0.0 1.0 0.00 0.01 0.00 98 1021.7
20260904004203 62 350 0.0 1.0 0.00 0.01 0.00 98 1021.6
20260904004103 62 350 0.0 1.0 0.00 0.01 0.00 98 1021.7
20260904004003 62 350 0.0 1.0 0.00 0.01 0.00 98 1021.7
20260904003903 62 350 0.0 1.0 0.00 0.01 0.00 98 1021.7
20260904003803 62 350 0.0 1.0 0.00 0.01 0.00 98 1021.7
20260904003703 62 350 0.0 1.0 0.00 0.01 0.00 98 1021.6
20260904003603 62 350 0.0 1.0 0.00 0.01 0.00 98 1021.8
20260904003503 62 350 0.0 1.0 0.00 0.01 0.00 98 1021.5
20260904003403 62 350 0.0 1.0 0.00 0.01 0.00 98 1021.6
20260904003303 62 350 0.0 1.0 0.00 0.01 0.00 98 1021.6
20260904003203 62 350 0.0 1.0 0.00 0.01 0.00 98 1021.6
20260904003103 62 0 0.0 0.0 0.00 0.01 0.00 98 1021.7
20260904003003 62 350 0.0 1.0 0.00 0.01 0.00 98 1021.7
20260904002903 62 350 0.0 1.0 0.00 0.01 0.00 98 1021.7
20260904002803 62 350 0.0 1.0 0.00 0.01 0.00 98 1021.6
20260904002724 62 350 0.0 1.0 0.00 0.01 0.00 98 1021.8
20260904002603 62 350 0.0 1.0 0.00 0.01 0.00 98 1021.8
20260904002503 62 350 0.0 1.0 0.00 0.01 0.00 98 1021.8
20260904002424 62 350 0.0 1.0 0.00 0.01 0.00 98 1021.8
20260904002324 63 350 0.0 1.0 0.00 0.01 0.00 98 1021.7
20260904002203 63 350 0.0 1.0 0.00 0.01 0.00 98 1021.6
20260904002103 63 350 0.0 1.0 0.00 0.01 0.00 98 1021.7
20260904002024 63 350 0.0 1.0 0.00 0.01 0.00 98 1021.6
20260904001903 63 0 0.0 0.0 0.00 0.01 0.00 98 1021.7
20260904001803 63 0 0.0 0.0 0.00 0.01 0.00 98 1021.7
20260904001703 63 0 0.0 0.0 0.00 0.01 0.00 98 1021.7
20260904001603 63 0 0.0 0.0 0.00 0.01 0.00 98 1021.7
20260904001524 63 0 0.0 0.0 0.00 0.01 0.00 98 1021.7
20260904001403 63 0 0.0 0.0 0.00 0.01 0.00 98 1021.7
20260904001303 63 0 0.0 0.0 0.00 0.01 0.00 98 1021.5
20260904001203 63 0 0.0 0.0 0.00 0.01 0.00 98 1021.6
20260904001103 63 350 0.0 1.0 0.00 0.01 0.00 98 1021.7
20260904001003 64 350 0.0 1.0 0.00 0.01 0.00 97 1021.6
20260904000903 64 350 0.0 1.0 0.00 0.01 0.00 97 1021.8
20260904000803 64 350 0.0 1.0 0.00 0.01 0.00 97 1021.8
20260904000703 64 350 0.0 1.0 0.00 0.01 0.00 97 1021.8
20260904000603 64 350 0.0 1.0 0.00 0.01 0.00 97 1021.7
20260904000503 64 350 0.0 1.0 0.00 0.01 0.00 97 1021.9
20260904000403 64 350 0.0 1.0 0.00 0.01 0.00 97 1021.7
20260904000303 64 350 0.0 1.0 0.00 0.01 0.00 97 1021.6
20260904000204 64 350 0.0 1.0 0.00 0.01 0.00 97 1021.7
20260904000024 64 350 0.0 1.0 0.00 0.01 0.00 97 1021.7
20260903235903 64 350 0.0 1.0 0.00 0.01 0.00 97 1021.8
20260903235803 64 350 0.0 1.0 0.00 0.01 0.00 97 1021.9
20260903235703 64 350 0.0 1.0 0.00 0.01 0.00 97 1021.6
20260903235603 64 350 0.0 1.0 0.00 0.01 0.00 97 1021.7
20260903235503 64 350 0.0 1.0 0.00 0.01 0.00 97 1021.8
20260903235403 64 350 0.0 1.0 0.00 0.01 0.00 97 1021.7
20260903235305 64 350 0.0 1.0 0.00 0.01 0.00 97 1021.7
20260903235203 64 350 0.0 1.0 0.00 0.01 0.00 97 1021.7
20260903235103 64 350 0.0 1.0 0.00 0.01 0.00 97 1021.6
20260903235003 64 350 0.0 1.0 0.00 0.01 0.00 97 1021.6
20260903234903 64 350 0.0 1.0 0.00 0.01 0.00 97 1021.8
20260903234803 64 350 0.0 1.0 0.00 0.01 0.00 97 1021.6
20260903234724 64 350 0.0 1.0 0.00 0.01 0.00 97 1021.7
20260903234603 64 350 0.0 1.0 0.00 0.01 0.00 97 1021.8
20260903234503 64 350 0.0 1.0 0.00 0.01 0.00 96 1021.8
20260903234403 64 350 0.0 1.0 0.00 0.01 0.00 96 1021.7
20260903234303 64 350 0.0 1.0 0.00 0.01 0.00 96 1021.8
20260903234203 64 350 0.0 1.0 0.00 0.01 0.00 96 1021.5
20260903234103 64 350 0.0 1.0 0.00 0.01 0.00 96 1021.7
20260903234003 64 350 0.0 1.0 0.00 0.01 0.00 96 1021.8
20260903233903 64 350 0.0 1.0 0.00 0.01 0.00 96 1021.7
20260903233803 64 350 0.0 1.0 0.00 0.01 0.00 96 1021.6
20260903233703 64 350 0.0 1.0 0.00 0.01 0.00 96 1021.7
20260903233603 64 350 0.0 1.0 0.00 0.01 0.00 96 1021.6
20260903233503 63 350 0.0 1.0 0.00 0.01 0.00 96 1021.7
20260903233403 63 0 0.0 0.0 0.00 0.01 0.00 96 1021.7
20260903233303 63 0 0.0 0.0 0.00 0.01 0.00 96 1021.5
20260903233203 63 0 0.0 0.0 0.00 0.01 0.00 96 1021.6
20260903233103 63 0 0.0 0.0 0.00 0.01 0.00 96 1021.7
20260903233003 64 0 0.0 0.0 0.00 0.01 0.00 95 1021.8
20260903232903 64 0 0.0 0.0 0.00 0.01 0.00 95 1021.5
20260903232803 64 0 0.0 0.0 0.00 0.01 0.00 95 1021.6
20260903232703 64 0 0.0 0.0 0.00 0.01 0.00 95 1021.6
20260903232603 64 0 0.0 0.0 0.00 0.01 0.00 95 1021.7
20260903232504 64 0 0.0 0.0 0.00 0.01 0.00 95 1021.7
20260903232403 64 0 0.0 0.0 0.00 0.01 0.00 95 1021.7
20260903232306 64 0 0.0 0.0 0.00 0.01 0.00 95 1021.7
20260903232203 64 0 0.0 0.0 0.00 0.01 0.00 95 1021.7
20260903232103 64 0 0.0 0.0 0.00 0.01 0.00 95 1021.6
20260903232024 64 0 0.0 0.0 0.00 0.01 0.00 95 1021.6
20260903231903 64 0 0.0 0.0 0.00 0.01 0.00 95 1021.4
20260903231803 64 0 0.0 0.0 0.00 0.01 0.00 95 1021.7
20260903231724 64 0 0.0 0.0 0.00 0.01 0.00 95 1021.5
20260903231603 64 0 0.0 0.0 0.00 0.01 0.00 95 1021.7
20260903231503 64 0 0.0 0.0 0.00 0.01 0.00 95 1021.7
20260903231403 64 0 0.0 0.0 0.00 0.01 0.00 95 1021.6
20260903231303 64 0 0.0 0.0 0.00 0.01 0.00 95 1021.7
20260903231203 64 0 0.0 0.0 0.00 0.01 0.00 95 1021.6
20260903231103 64 0 0.0 0.0 0.00 0.01 0.00 95 1021.7
20260903231024 64 0 0.0 0.0 0.00 0.01 0.00 95 1021.7
20260903230903 64 0 0.0 0.0 0.00 0.01 0.00 95 1021.6
20260903230803 64 0 0.0 0.0 0.00 0.01 0.00 95 1021.5
20260903230703 64 0 0.0 0.0 0.00 0.01 0.00 95 1021.5
20260903230603 64 0 0.0 0.0 0.00 0.01 0.00 95 1021.6
20260903230503 64 0 0.0 0.0 0.00 0.01 0.00 95 1021.5
20260903230403 64 0 0.0 0.0 0.00 0.01 0.00 95 1021.4
20260903230303 64 349 0.0 1.0 0.00 0.01 0.00 95 1021.6
20260903230203 64 349 0.0 1.0 0.00 0.01 0.00 95 1021.7
20260903230003 64 349 0.0 1.0 0.00 0.01 0.00 95 1021.8
20260903225903 64 349 0.0 1.0 0.00 0.01 0.00 95 1021.6
20260903225803 65 349 0.0 1.0 0.00 0.01 0.00 95 1021.6
20260903225703 65 349 0.0 1.0 0.00 0.01 0.00 94 1021.5
20260903225603 65 349 0.0 1.0 0.00 0.01 0.00 94 1021.8
20260903225503 65 349 0.0 1.0 0.00 0.01 0.00 94 1021.7
20260903225403 64 349 0.0 1.0 0.00 0.01 0.00 94 1021.7
20260903225306 64 349 0.0 1.0 0.00 0.01 0.00 94 1021.5
20260903225203 64 0 0.0 0.0 0.00 0.01 0.00 94 1021.7
20260903225103 64 0 0.0 0.0 0.00 0.01 0.00 94 1021.5
20260903225003 65 0 0.0 0.0 0.00 0.01 0.00 94 1021.7
20260903224903 65 0 0.0 0.0 0.00 0.01 0.00 94 1021.6
20260903224803 65 0 0.0 0.0 0.00 0.01 0.00 94 1021.6
20260903224703 65 0 0.0 0.0 0.00 0.01 0.00 94 1021.6
20260903224603 65 0 0.0 0.0 0.00 0.01 0.00 94 1021.7
20260903224524 65 0 0.0 0.0 0.00 0.01 0.00 94 1021.6
20260903224403 65 0 0.0 0.0 0.00 0.01 0.00 93 1021.8
20260903224303 65 0 0.0 0.0 0.00 0.01 0.00 93 1021.6
20260903224203 65 0 0.0 0.0 0.00 0.01 0.00 93 1021.6
20260903224103 65 0 0.0 0.0 0.00 0.01 0.00 93 1021.7
20260903224003 65 0 0.0 0.0 0.00 0.01 0.00 93 1021.7
20260903223903 64 0 0.0 0.0 0.00 0.01 0.00 93 1021.6
20260903223803 64 0 0.0 0.0 0.00 0.01 0.00 93 1021.7
20260903223703 64 0 0.0 0.0 0.00 0.01 0.00 93 1021.6
20260903223624 65 0 0.0 0.0 0.00 0.01 0.00 93 1021.8
20260903223503 65 0 0.0 0.0 0.00 0.01 0.00 93 1021.6
20260903223424 65 0 0.0 0.0 0.00 0.01 0.00 93 1021.6
20260903223324 65 0 0.0 0.0 0.00 0.01 0.00 93 1021.5
20260903223203 65 0 0.0 0.0 0.00 0.01 0.00 93 1021.7
20260903223103 65 0 0.0 0.0 0.00 0.01 0.00 93 1021.7
20260903223003 65 0 0.0 0.0 0.00 0.01 0.00 93 1021.7
20260903222903 65 0 0.0 0.0 0.00 0.01 0.00 93 1021.8
20260903222803 65 0 0.0 0.0 0.00 0.01 0.00 92 1021.7
20260903222703 65 0 0.0 0.0 0.00 0.01 0.00 92 1021.7
20260903222603 65 0 0.0 0.0 0.00 0.01 0.00 92 1021.6
20260903222503 66 0 0.0 0.0 0.00 0.01 0.00 92 1021.9
20260903222403 66 0 0.0 0.0 0.00 0.01 0.00 92 1021.6
20260903222324 66 0 0.0 0.0 0.00 0.01 0.00 92 1021.6
20260903222203 66 0 0.0 0.0 0.00 0.01 0.00 92 1021.8
20260903222103 66 0 0.0 0.0 0.00 0.01 0.00 92 1021.7
20260903222003 66 0 0.0 0.0 0.00 0.01 0.00 92 1021.7
20260903221903 66 0 0.0 0.0 0.00 0.01 0.00 91 1021.8
20260903221803 66 349 0.0 1.0 0.00 0.01 0.00 91 1021.7
20260903221703 66 349 0.0 1.0 0.00 0.01 0.00 91 1021.6
20260903221603 66 349 0.0 1.0 0.00 0.01 0.00 91 1021.6
20260903221503 66 349 0.0 1.0 0.00 0.01 0.00 91 1021.7
20260903221403 67 349 0.0 1.0 0.00 0.01 0.00 91 1021.6
20260903221324 67 349 0.0 1.0 0.00 0.01 0.00 91 1021.6
20260903221224 67 349 0.0 1.0 0.00 0.01 0.00 91 1021.7
20260903221103 67 349 0.0 1.0 0.00 0.01 0.00 91 1021.6
20260903221024 67 349 0.0 1.0 0.00 0.01 0.00 91 1021.6
20260903220903 67 349 0.0 1.0 0.00 0.01 0.00 91 1021.7
20260903220803 67 349 0.0 1.0 0.00 0.01 0.00 91 1021.7
20260903220703 67 349 0.0 1.0 0.00 0.01 0.00 91 1021.6
20260903220603 67 349 0.0 1.0 0.00 0.01 0.00 92 1021.7
20260903220524 67 349 0.0 1.0 0.00 0.01 0.00 92 1021.6
20260903220424 67 349 0.0 1.0 0.00 0.01 0.00 92 1021.7
20260903220303 67 349 0.0 1.0 0.00 0.01 0.00 92 1021.6
20260903220203 67 0 0.0 0.0 0.00 0.01 0.00 92 1021.6
20260903220003 67 0 0.0 0.0 0.00 0.01 0.00 92 1021.4
20260903215903 67 0 0.0 0.0 0.00 0.01 0.01 92 1021.7
20260903215803 67 0 0.0 0.0 0.00 0.01 0.01 92 1021.7
20260903215703 67 0 0.0 0.0 0.00 0.01 0.01 92 1021.7
20260903215603 67 0 0.0 0.0 0.00 0.01 0.01 92 1021.6
20260903215503 67 0 0.0 0.0 0.00 0.01 0.01 92 1021.5
20260903215403 67 0 0.0 0.0 0.00 0.01 0.01 92 1021.6
20260903215306 67 0 0.0 0.0 0.00 0.01 0.01 92 1021.5
20260903215203 67 0 0.0 0.0 0.00 0.01 0.01 92 1021.6
20260903215103 67 0 0.0 0.0 0.00 0.01 0.01 92 1021.6
20260903215003 67 0 0.0 0.0 0.00 0.01 0.01 91 1021.7
20260903214903 67 0 0.0 0.0 0.00 0.01 0.01 91 1021.6
20260903214824 67 0 0.0 0.0 0.00 0.01 0.01 91 1021.7
20260903214703 67 0 0.0 0.0 0.00 0.01 0.01 91 1021.6
20260903214603 67 0 0.0 0.0 0.00 0.01 0.01 91 1021.6
20260903214503 67 0 0.0 0.0 0.00 0.01 0.01 91 1021.7
20260903214403 67 0 0.0 0.0 0.00 0.01 0.01 91 1021.4
20260903214303 67 0 0.0 0.0 0.00 0.01 0.01 91 1021.6
20260903214203 67 0 0.0 0.0 0.00 0.01 0.01 91 1021.7
20260903214103 67 0 0.0 0.0 0.00 0.01 0.01 91 1021.8
20260903214003 67 0 0.0 0.0 0.00 0.01 0.01 91 1021.7
20260903213924 67 0 0.0 0.0 0.00 0.01 0.01 91 1021.6
20260903213803 67 0 0.0 0.0 0.00 0.01 0.01 91 1021.6
20260903213703 67 0 0.0 0.0 0.00 0.01 0.01 91 1021.8
20260903213603 68 0 0.0 0.0 0.00 0.01 0.01 90 1021.6
20260903213503 68 0 0.0 0.0 0.00 0.01 0.01 90 1021.7
20260903213424 68 0 0.0 0.0 0.00 0.01 0.01 90 1021.6
20260903213303 68 0 0.0 0.0 0.00 0.01 0.01 90 1021.8
20260903213203 68 0 0.0 0.0 0.00 0.01 0.01 90 1021.8
20260903213103 68 0 0.0 0.0 0.00 0.01 0.01 90 1021.7
20260903213003 68 0 0.0 0.0 0.00 0.01 0.01 90 1021.6
20260903212924 68 0 0.0 0.0 0.00 0.01 0.01 90 1021.6
20260903212803 68 0 0.0 0.0 0.00 0.01 0.01 90 1021.6
20260903212703 68 349 0.0 1.0 0.00 0.01 0.01 90 1021.8
20260903212603 68 349 0.0 1.0 0.00 0.01 0.01 90 1021.6
20260903212503 68 349 0.0 1.0 0.00 0.01 0.01 90 1021.7
20260903212403 68 349 0.0 1.0 0.00 0.01 0.01 90 1021.7
20260903212306 68 349 0.0 1.0 0.00 0.01 0.01 90 1021.7
20260903212203 68 349 0.0 1.0 0.00 0.01 0.01 89 1021.7
20260903212124 68 349 0.0 1.0 0.00 0.01 0.01 89 1021.7
20260903212003 68 349 0.0 1.0 0.00 0.01 0.01 89 1021.6
20260903211903 67 349 0.0 1.0 0.00 0.01 0.01 89 1021.6
20260903211824 67 349 0.0 1.0 0.00 0.01 0.01 89 1021.6
20260903211724 67 349 0.0 1.0 0.00 0.01 0.01 89 1021.7
20260903211603 67 0 0.0 0.0 0.00 0.01 0.01 89 1021.8
20260903211503 67 0 0.0 0.0 0.00 0.01 0.01 89 1021.6
20260903211403 67 0 0.0 0.0 0.00 0.01 0.01 89 1021.5
20260903211303 67 0 0.0 0.0 0.00 0.01 0.01 89 1021.7
20260903211203 67 0 0.0 0.0 0.00 0.01 0.01 89 1021.7
20260903211103 67 0 0.0 0.0 0.00 0.01 0.01 88 1021.6
20260903211003 67 0 0.0 0.0 0.00 0.01 0.01 88 1021.7
20260903210924 67 0 0.0 0.0 0.00 0.01 0.01 88 1021.6
20260903210803 67 0 0.0 0.0 0.00 0.01 0.01 88 1021.6
20260903210703 67 0 0.0 0.0 0.00 0.01 0.01 88 1021.5
20260903210603 67 0 0.0 0.0 0.00 0.01 0.01 88 1021.5
20260903210503 67 0 0.0 0.0 0.00 0.01 0.01 88 1021.6
20260903210403 67 0 0.0 0.0 0.00 0.01 0.01 87 1021.6
20260903210303 68 0 0.0 0.0 0.00 0.01 0.01 87 1021.5
20260903210203 68 0 0.0 0.0 0.00 0.01 0.01 87 1021.5
20260903210003 68 0 0.0 0.0 0.00 0.01 0.01 87 1021.5
20260903205903 68 0 0.0 0.0 0.00 0.01 0.01 87 1021.6
20260903205803 68 0 0.0 0.0 0.00 0.01 0.01 87 1021.7
20260903205703 68 0 0.0 0.0 0.00 0.01 0.01 87 1021.6
20260903205603 69 0 0.0 0.0 0.00 0.01 0.01 87 1021.5
20260903205524 69 0 0.0 0.0 0.00 0.01 0.01 87 1021.6
20260903205403 69 0 0.0 0.0 0.00 0.01 0.01 87 1021.5
20260903205324 69 0 0.0 0.0 0.00 0.01 0.01 86 1021.5
20260903205203 69 0 0.0 0.0 0.00 0.01 0.01 86 1021.5
20260903205103 69 0 0.0 0.0 0.00 0.01 0.01 86 1021.7
20260903205003 69 0 0.0 0.0 0.00 0.01 0.01 86 1021.5
20260903204903 69 0 0.0 0.0 0.00 0.01 0.01 86 1021.3
20260903204803 69 0 0.0 0.0 0.00 0.01 0.01 86 1021.4
20260903204703 69 0 0.0 0.0 0.00 0.01 0.01 86 1021.3
20260903204603 69 0 0.0 0.0 0.00 0.01 0.01 86 1021.4
20260903204503 69 0 0.0 0.0 0.00 0.01 0.01 86 1021.3
20260903204403 68 0 0.0 0.0 0.00 0.01 0.01 86 1021.5
20260903204303 68 0 0.0 0.0 0.00 0.01 0.01 86 1021.4
20260903204203 69 0 0.0 0.0 0.00 0.01 0.01 85 1021.3
20260903204103 69 0 0.0 0.0 0.00 0.01 0.01 85 1021.3
20260903204003 69 0 0.0 0.0 0.00 0.01 0.01 85 1021.4
20260903203903 69 0 0.0 0.0 0.00 0.01 0.01 85 1021.6
20260903203803 69 0 0.0 0.0 0.00 0.01 0.01 84 1021.5
20260903203703 69 0 0.0 0.0 0.00 0.01 0.01 84 1021.3
20260903203603 69 0 0.0 0.0 0.00 0.01 0.01 84 1021.5
20260903203503 69 0 0.0 0.0 0.00 0.01 0.01 84 1021.5
20260903203403 69 350 0.0 1.0 0.00 0.01 0.01 83 1021.5
20260903203324 69 350 0.0 1.0 0.00 0.01 0.01 83 1021.5
20260903203203 70 350 0.0 1.0 0.00 0.01 0.01 83 1021.6
20260903203103 70 350 0.0 1.0 0.00 0.01 0.01 83 1021.6
20260903203003 70 350 0.0 1.0 0.00 0.01 0.01 83 1021.6
20260903202924 70 350 0.0 1.0 0.00 0.01 0.01 83 1021.5
20260903202824 70 350 0.0 1.0 0.00 0.01 0.01 83 1021.5
20260903202703 70 350 0.0 1.0 0.00 0.01 0.01 83 1021.4
20260903202603 70 350 0.0 1.0 0.00 0.01 0.01 82 1021.5
20260903202504 70 350 0.0 1.0 0.00 0.01 0.01 82 1021.5
20260903202424 70 349 0.0 1.0 0.00 0.01 0.01 82 1021.4
20260903202306 70 349 0.0 1.0 0.00 0.01 0.01 81 1021.3
20260903202203 70 349 0.0 1.0 0.00 0.01 0.01 81 1021.4
20260903202124 70 349 0.0 1.0 0.00 0.01 0.01 80 1021.1
20260903202004 70 349 0.0 1.0 0.00 0.01 0.01 81 1021.3
20260903201903 70 349 0.0 1.0 0.00 0.01 0.01 81 1021.1
20260903201803 70 349 0.0 1.0 0.00 0.01 0.01 80 1021.3
20260903201724 70 350 0.0 1.0 0.00 0.01 0.01 80 1021.3
20260903201603 70 350 0.0 1.0 0.00 0.01 0.01 80 1021.3
20260903201503 71 350 0.0 2.0 0.00 0.01 0.01 80 1021.4
20260903201424 71 350 0.0 2.0 0.00 0.01 0.01 80 1021.4
20260903201303 71 350 0.0 2.0 0.00 0.01 0.01 80 1021.3
20260903201203 71 350 0.0 2.0 0.00 0.01 0.01 80 1021.3
20260903201103 71 350 0.0 2.0 0.00 0.01 0.01 80 1021.4
20260903201003 71 350 0.0 2.0 0.00 0.01 0.01 80 1021.4
20260903200903 71 350 0.0 2.0 0.00 0.01 0.01 79 1021.2
20260903200803 71 350 0.0 2.0 0.00 0.01 0.01 78 1021.3
20260903200724 71 350 0.0 2.0 0.00 0.01 0.01 78 1021.4
20260903200603 71 349 1.0 2.0 0.00 0.01 0.01 78 1021.2
20260903200503 71 349 0.0 2.0 0.00 0.01 0.01 78 1021.3
20260903200403 71 349 0.0 2.0 0.00 0.01 0.01 77 1021.2
20260903200304 71 349 1.0 2.0 0.00 0.01 0.01 77 1021.1
20260903200203 71 349 1.0 2.0 0.00 0.01 0.01 77 1021.1
20260903200003 71 349 1.0 2.0 0.00 0.01 0.01 77 1021.0
20260903195903 71 349 1.0 2.0 0.00 0.01 0.01 77 1021.1
20260903195803 71 349 1.0 2.0 0.00 0.01 0.01 77 1021.0
20260903195703 71 349 1.0 2.0 0.00 0.01 0.01 77 1021.0
20260903195603 71 349 1.0 2.0 0.00 0.01 0.01 77 1021.0
20260903195503 71 349 1.0 2.0 0.00 0.01 0.01 77 1021.1
20260903195403 71 349 1.0 2.0 0.00 0.01 0.01 77 1020.9
20260903195306 71 349 1.0 2.0 0.00 0.01 0.01 77 1021.0
20260903195203 71 349 1.0 2.0 0.00 0.01 0.01 77 1021.1
20260903195103 71 349 0.0 2.0 0.00 0.01 0.01 77 1020.8
20260903195003 71 349 0.0 2.0 0.00 0.01 0.01 77 1020.8
20260903194903 71 349 0.0 2.0 0.00 0.01 0.01 77 1021.1
20260903194824 71 349 0.0 1.0 0.00 0.01 0.01 77 1021.0
20260903194704 71 349 0.0 1.0 0.00 0.01 0.01 77 1021.0
20260903194603 71 349 0.0 1.0 0.00 0.01 0.01 77 1021.0
20260903194503 71 349 0.0 1.0 0.00 0.01 0.01 76 1020.9
20260903194403 71 349 0.0 1.0 0.00 0.01 0.01 76 1021.0
20260903194303 71 349 0.0 1.0 0.00 0.01 0.01 76 1020.7
20260903194203 71 349 0.0 1.0 0.00 0.01 0.01 76 1020.7
20260903194103 71 349 0.0 1.0 0.00 0.01 0.01 76 1020.8
20260903194003 71 349 0.0 1.0 0.00 0.01 0.01 76 1020.8
20260903193924 72 349 0.0 1.0 0.00 0.01 0.01 76 1020.8
20260903193803 72 349 0.0 1.0 0.00 0.01 0.01 76 1020.8
20260903193703 72 349 0.0 1.0 0.00 0.01 0.01 76 1020.8
20260903193624 72 349 0.0 1.0 0.00 0.01 0.01 76 1021.0
20260903193503 72 349 0.0 1.0 0.00 0.01 0.01 75 1020.8
20260903193403 72 349 0.0 1.0 0.00 0.01 0.01 75 1020.7
20260903193303 72 350 0.0 1.0 0.00 0.01 0.01 75 1020.7
20260903193203 72 350 0.0 1.0 0.00 0.01 0.01 75 1020.5
20260903193103 72 350 0.0 1.0 0.00 0.01 0.01 75 1020.8
20260903192703 72 349 1.0 2.0 0.00 0.01 0.01 76 1020.8
20260903192603 72 349 1.0 2.0 0.00 0.01 0.01 76 1020.8
20260903192503 72 349 1.0 2.0 0.00 0.01 0.01 76 1020.8
20260903192403 73 349 1.0 3.0 0.00 0.01 0.01 76 1020.8
20260903192306 73 349 1.0 3.0 0.00 0.01 0.01 76 1020.7
20260903192203 73 349 2.0 3.0 0.00 0.01 0.01 76 1020.8
20260903192103 73 349 2.0 3.0 0.00 0.01 0.01 76 1020.6
20260903192003 73 349 2.0 3.0 0.00 0.01 0.01 76 1020.6
20260903191903 73 349 2.0 3.0 0.00 0.01 0.01 76 1020.6
20260903191824 73 349 2.0 3.0 0.00 0.01 0.01 76 1020.7
20260903191703 73 349 2.0 3.0 0.00 0.01 0.01 76 1020.6
20260903191603 73 349 2.0 3.0 0.00 0.01 0.01 75 1020.8
20260903191524 74 350 1.0 3.0 0.00 0.01 0.01 75 1020.5
20260903191403 74 350 1.0 3.0 0.00 0.01 0.01 74 1020.5
20260903191303 74 350 1.0 2.0 0.00 0.01 0.01 74 1020.7
20260903191203 74 350 1.0 2.0 0.00 0.01 0.01 73 1020.5
20260903191103 74 350 1.0 2.0 0.00 0.01 0.01 73 1020.4
20260903191004 74 350 1.0 2.0 0.00 0.01 0.01 73 1020.7
20260903190903 74 350 0.0 1.0 0.00 0.01 0.01 72 1020.7
20260903190803 74 350 0.0 1.0 0.00 0.01 0.01 72 1020.6
20260903190703 74 350 0.0 1.0 0.00 0.01 0.01 72 1020.8
20260903190603 74 350 0.0 1.0 0.00 0.01 0.01 71 1020.8
20260903190503 74 350 0.0 1.0 0.00 0.01 0.01 71 1020.7
20260903190424 74 350 0.0 1.0 0.00 0.01 0.01 71 1020.7
20260903190303 74 350 0.0 1.0 0.00 0.01 0.01 71 1020.5
20260903190204 74 350 0.0 1.0 0.00 0.01 0.01 71 1020.8
20260903190003 75 350 0.0 1.0 0.00 0.01 0.01 71 1020.8
20260903185903 75 350 0.0 1.0 0.00 0.01 0.01 70 1020.7
20260903185803 75 350 0.0 1.0 0.00 0.01 0.01 70 1020.6
20260903185703 75 350 0.0 1.0 0.00 0.01 0.01 70 1020.7
20260903185604 76 350 0.0 1.0 0.00 0.01 0.01 70 1020.7
20260903185503 76 350 0.0 1.0 0.00 0.01 0.01 69 1020.6
20260903185403 76 350 0.0 1.0 0.00 0.01 0.01 69 1020.6
20260903185306 76 350 0.0 1.0 0.00 0.01 0.01 69 1020.5
20260903185224 76 350 0.0 1.0 0.00 0.01 0.01 69 1020.6
20260903185103 76 350 0.0 1.0 0.00 0.01 0.01 69 1020.6
20260903185003 77 350 0.0 1.0 0.00 0.01 0.01 68 1020.7
20260903184924 77 350 0.0 1.0 0.00 0.01 0.01 68 1020.6
20260903184803 77 350 0.0 1.0 0.00 0.01 0.01 66 1020.7
20260903184703 78 350 0.0 1.0 0.00 0.01 0.01 66 1020.7
20260903184603 78 350 0.0 1.0 0.00 0.01 0.01 66 1020.7
20260903184524 78 350 0.0 1.0 0.00 0.01 0.01 65 1020.7
20260903184403 78 350 0.0 1.0 0.00 0.01 0.01 66 1020.5
20260903184303 78 350 0.0 1.0 0.00 0.01 0.01 66 1020.7
20260903184203 78 350 0.0 1.0 0.00 0.01 0.01 65 1020.5
20260903184103 78 350 0.0 1.0 0.00 0.01 0.01 64 1020.6
20260903184004 78 350 0.0 1.0 0.00 0.01 0.01 64 1020.7
20260903183903 78 350 0.0 1.0 0.00 0.01 0.01 64 1020.7
20260903183803 78 350 0.0 1.0 0.00 0.01 0.01 64 1020.6
20260903183703 78 350 0.0 1.0 0.00 0.01 0.01 64 1020.7
20260903183603 78 350 0.0 1.0 0.00 0.01 0.01 65 1020.7
20260903183503 78 350 0.0 1.0 0.00 0.01 0.01 65 1020.6
20260903183424 78 350 0.0 2.0 0.00 0.01 0.01 66 1020.6
20260903183324 78 350 1.0 2.0 0.00 0.01 0.01 66 1020.6
20260903183224 78 350 1.0 2.0 0.00 0.01 0.01 66 1020.6
20260903183103 78 350 1.0 2.0 0.00 0.01 0.01 66 1020.7
20260903183003 78 350 1.0 2.0 0.00 0.01 0.01 66 1020.6
20260903182924 78 350 1.0 2.0 0.00 0.01 0.01 65 1020.6
20260903182803 78 350 1.0 2.0 0.00 0.01 0.01 65 1020.5
20260903182703 78 350 1.0 2.0 0.00 0.01 0.01 65 1020.6
20260903182603 79 350 1.0 2.0 0.00 0.01 0.01 65 1020.6
20260903182503 79 350 1.0 2.0 0.00 0.01 0.01 64 1020.6
20260903182403 79 350 1.0 2.0 0.00 0.01 0.01 64 1020.6
20260903182306 79 350 1.0 2.0 0.00 0.01 0.01 64 1020.7
20260903182203 80 350 1.0 2.0 0.00 0.01 0.01 63 1020.5
20260903182103 80 350 0.0 2.0 0.00 0.01 0.01 63 1020.6
20260903182003 80 350 1.0 2.0 0.00 0.01 0.01 62 1020.6
20260903181903 81 350 0.0 2.0 0.00 0.01 0.01 62 1020.6
20260903181803 81 349 1.0 2.0 0.00 0.01 0.01 61 1020.7
20260903181703 81 349 1.0 2.0 0.00 0.01 0.01 62 1020.6
20260903181603 80 349 1.0 2.0 0.00 0.01 0.01 62 1020.6
20260903181503 80 348 1.0 2.0 0.00 0.01 0.01 63 1020.7
20260903181403 80 348 1.0 2.0 0.00 0.01 0.01 63 1020.5
20260903181303 80 348 1.0 2.0 0.00 0.01 0.01 63 1020.6
20260903181203 80 348 1.0 2.0 0.00 0.01 0.01 63 1020.6
20260903181103 80 347 1.0 2.0 0.00 0.01 0.01 63 1020.8
20260903181003 80 347 1.0 2.0 0.00 0.01 0.01 62 1020.6
20260903180903 80 347 1.0 2.0 0.00 0.01 0.01 63 1020.5
20260903180803 80 347 1.0 2.0 0.00 0.01 0.01 63 1020.7
20260903180703 80 347 1.0 2.0 0.00 0.01 0.01 63 1020.6
20260903180603 81 347 1.0 2.0 0.00 0.01 0.01 62 1020.5
20260903180524 81 347 1.0 2.0 0.00 0.01 0.01 62 1020.5
20260903180403 81 349 1.0 2.0 0.00 0.01 0.01 62 1020.6
20260903180303 81 349 1.0 2.0 0.00 0.01 0.01 62 1020.6
20260903180204 81 350 1.0 2.0 0.00 0.01 0.01 61 1020.6
20260903180003 81 350 1.0 2.0 0.00 0.01 0.01 61 1020.5
20260903175903 81 351 1.0 2.0 0.00 0.01 0.01 61 1020.6
20260903175803 81 351 1.0 2.0 0.00 0.01 0.01 62 1020.5
20260903175724 81 351 1.0 2.0 0.00 0.01 0.01 62 1020.5
20260903175603 81 351 1.0 2.0 0.00 0.01 0.01 62 1020.4
20260903175503 81 351 1.0 2.0 0.00 0.01 0.01 62 1020.5
20260903175403 82 351 1.0 2.0 0.00 0.01 0.01 62 1020.5
20260903175324 82 350 1.0 2.0 0.00 0.01 0.01 61 1020.4
20260903175203 82 350 1.0 2.0 0.00 0.01 0.01 61 1020.6
20260903175103 82 350 1.0 2.0 0.00 0.01 0.01 61 1020.6
20260903175004 82 350 1.0 2.0 0.00 0.01 0.01 61 1020.5
20260903174903 82 350 1.0 2.0 0.00 0.01 0.01 61 1020.5
20260903174803 82 350 1.0 2.0 0.00 0.01 0.01 62 1020.6
20260903174703 82 350 1.0 2.0 0.00 0.01 0.01 61 1020.6
20260903174603 82 350 1.0 2.0 0.00 0.01 0.01 62 1020.5
20260903174503 82 350 1.0 2.0 0.00 0.01 0.01 61 1020.5
20260903174403 82 350 1.0 2.0 0.00 0.01 0.01 62 1020.3
20260903174303 83 349 1.0 2.0 0.00 0.01 0.01 61 1020.6
20260903174224 83 349 1.0 2.0 0.00 0.01 0.01 62 1020.6
20260903174124 83 349 1.0 2.0 0.00 0.01 0.01 61 1020.5
20260903174003 82 348 1.0 2.0 0.00 0.01 0.01 61 1020.6
20260903173903 82 348 1.0 2.0 0.00 0.01 0.01 61 1020.5
20260903173803 83 348 1.0 2.0 0.00 0.01 0.01 61 1020.6
20260903173703 83 348 1.0 2.0 0.00 0.01 0.01 61 1020.5
20260903173603 83 347 1.0 2.0 0.00 0.01 0.01 62 1020.7
20260903173504 83 347 1.0 2.0 0.00 0.01 0.01 60 1020.5
20260903173403 84 347 1.0 2.0 0.00 0.01 0.01 60 1020.5
20260903173303 84 347 1.0 2.0 0.00 0.01 0.01 60 1020.3
20260903173224 84 347 1.0 2.0 0.00 0.01 0.01 60 1020.7
20260903173124 84 347 1.0 2.0 0.00 0.01 0.01 59 1020.7
20260903173003 84 347 1.0 2.0 0.00 0.01 0.01 60 1020.6
20260903172903 84 346 1.0 2.0 0.00 0.01 0.01 60 1020.6
20260903172804 84 346 1.0 2.0 0.00 0.01 0.01 59 1020.6
20260903172703 84 346 1.0 3.0 0.00 0.01 0.01 59 1020.7
20260903172603 84 346 1.0 3.0 0.00 0.01 0.01 59 1020.5
20260903172503 85 346 1.0 3.0 0.00 0.01 0.01 59 1020.7
20260903172403 85 346 1.0 3.0 0.00 0.01 0.01 59 1020.6
20260903172306 85 346 1.0 3.0 0.00 0.01 0.01 59 1020.6
20260903172203 85 346 1.0 3.0 0.00 0.01 0.01 58 1020.8
20260903172124 85 346 1.0 3.0 0.00 0.01 0.01 59 1020.5
20260903172003 85 346 1.0 3.0 0.00 0.01 0.01 58 1020.5
20260903171903 85 346 1.0 3.0 0.00 0.01 0.01 59 1020.7
20260903171825 85 342 1.0 3.0 0.00 0.01 0.01 59 1020.7
20260903171703 85 342 1.0 3.0 0.00 0.01 0.01 58 1020.6
20260903171603 85 340 1.0 2.0 0.00 0.01 0.01 58 1020.7
20260903171503 85 339 1.0 2.0 0.00 0.01 0.01 58 1020.6
20260903171424 86 340 1.0 2.0 0.00 0.01 0.01 58 1020.7
20260903171303 86 341 1.0 2.0 0.00 0.01 0.01 58 1020.5
20260903171204 86 341 1.0 2.0 0.00 0.01 0.01 58 1020.7
20260903171124 86 341 1.0 2.0 0.00 0.01 0.01 58 1020.4
20260903171004 86 342 1.0 3.0 0.00 0.01 0.01 57 1020.6
20260903170903 86 342 1.0 3.0 0.00 0.01 0.01 57 1020.6
20260903170803 86 348 1.0 3.0 0.00 0.01 0.01 57 1020.7
20260903170724 86 348 1.0 3.0 0.00 0.01 0.01 57 1020.7
20260903170603 86 350 1.0 3.0 0.00 0.01 0.01 56 1020.6
20260903170503 86 353 1.0 3.0 0.00 0.01 0.01 58 1020.6
20260903170424 87 351 2.0 3.0 0.00 0.01 0.01 58 1020.6
20260903170303 87 351 2.0 3.0 0.00 0.01 0.01 58 1020.7
20260903170204 87 353 2.0 3.0 0.00 0.01 0.01 56 1020.6
20260903170103 87 352 2.0 3.0 0.00 0.01 0.01 56 1020.5
20260903170003 86 353 2.0 3.0 0.00 0.01 0.01 56 1020.5
20260903165903 86 353 2.0 3.0 0.00 0.01 0.01 57 1020.6
20260903165803 86 353 2.0 3.0 0.00 0.01 0.01 58 1020.4
20260903165703 86 352 2.0 3.0 0.00 0.01 0.01 56 1020.6
20260903165603 86 353 3.0 3.0 0.00 0.01 0.01 56 1020.5
20260903165503 86 353 3.0 3.0 0.00 0.01 0.01 56 1020.5
20260903165403 86 355 3.0 3.0 0.00 0.01 0.01 56 1020.5
20260903165325 86 353 3.0 4.0 0.00 0.01 0.01 57 1020.4
20260903165203 86 352 3.0 4.0 0.00 0.01 0.01 56 1020.5
20260903165103 86 353 2.0 4.0 0.00 0.01 0.01 55 1020.5
20260903165003 86 354 2.0 4.0 0.00 0.01 0.01 56 1020.5
20260903164924 86 356 2.0 4.0 0.00 0.01 0.01 55 1020.4
20260903164803 86 357 2.0 4.0 0.00 0.01 0.01 55 1020.4
20260903164703 86 358 2.0 4.0 0.00 0.01 0.01 55 1020.4
20260903164603 86 359 1.0 4.0 0.00 0.01 0.01 55 1020.5
20260903164524 87 356 1.0 4.0 0.00 0.01 0.01 56 1020.4
20260903164404 87 354 1.0 4.0 0.00 0.01 0.01 55 1020.6
20260903164303 87 355 1.0 3.0 0.00 0.01 0.01 57 1020.5
20260903164203 87 355 1.0 3.0 0.00 0.01 0.01 56 1020.4
20260903164103 87 354 1.0 3.0 0.00 0.01 0.01 56 1020.3
20260903164003 87 356 1.0 3.0 0.00 0.01 0.01 56 1020.6
20260903163903 87 353 2.0 3.0 0.00 0.01 0.01 55 1020.4
20260903163824 87 352 2.0 3.0 0.00 0.01 0.01 56 1020.5
20260903163724 87 352 2.0 3.0 0.00 0.01 0.01 55 1020.5
20260903163603 87 351 2.0 3.0 0.00 0.01 0.01 56 1020.6
20260903163503 87 350 2.0 3.0 0.00 0.01 0.01 56 1020.5
20260903163425 87 350 2.0 3.0 0.00 0.01 0.01 56 1020.5
20260903163303 87 351 2.0 3.0 0.00 0.01 0.01 55 1020.5
20260903163224 87 354 2.0 3.0 0.00 0.01 0.01 55 1020.6
20260903163103 87 353 2.0 3.0 0.00 0.01 0.01 56 1020.5
20260903163004 87 352 2.0 3.0 0.00 0.01 0.01 54 1020.4
20260903162903 88 352 2.0 3.0 0.00 0.01 0.01 54 1020.5
20260903162824 88 348 2.0 3.0 0.00 0.01 0.01 54 1020.5
20260903162703 87 349 2.0 3.0 0.00 0.01 0.01 55 1020.6
20260903162624 87 353 2.0 3.0 0.00 0.01 0.01 55 1020.5
20260903162524 87 354 2.0 3.0 0.00 0.01 0.01 55 1020.7
20260903162424 87 354 2.0 3.0 0.00 0.01 0.01 55 1020.5
20260903162306 87 354 2.0 3.0 0.00 0.01 0.01 54 1020.5
20260903162203 88 352 2.0 3.0 0.00 0.01 0.01 55 1020.6
20260903162103 88 351 1.0 3.0 0.00 0.01 0.01 56 1020.5
20260903162003 88 350 1.0 3.0 0.00 0.01 0.01 58 1020.7
20260903161924 87 349 1.0 3.0 0.00 0.01 0.01 56 1020.6
20260903161824 87 348 1.0 3.0 0.00 0.01 0.01 55 1020.5
20260903161703 88 354 1.0 3.0 0.00 0.01 0.01 56 1020.8
20260903161603 88 354 1.0 3.0 0.00 0.01 0.01 55 1020.7
20260903161503 89 350 1.0 2.0 0.00 0.01 0.01 54 1020.6
20260903161403 89 350 1.0 2.0 0.00 0.01 0.01 54 1020.7
20260903161303 89 351 1.0 2.0 0.00 0.01 0.01 55 1020.7
20260903161203 89 352 1.0 2.0 0.00 0.01 0.01 55 1020.7
20260903161103 89 351 1.0 2.0 0.00 0.01 0.01 54 1020.8
20260903161003 89 351 1.0 2.0 0.00 0.01 0.01 53 1020.9
20260903160924 89 347 1.0 2.0 0.00 0.01 0.01 52 1020.6
20260903160824 89 346 1.0 3.0 0.00 0.01 0.01 52 1020.6
20260903160703 89 343 1.0 3.0 0.00 0.01 0.01 53 1020.8
20260903160603 89 343 1.0 3.0 0.00 0.01 0.01 55 1020.7
20260903160503 88 341 1.0 3.0 0.00 0.01 0.01 54 1020.8
20260903160403 88 342 1.0 3.0 0.00 0.01 0.01 55 1020.7
20260903160303 88 338 2.0 3.0 0.00 0.01 0.01 55 1020.7
20260903160203 88 338 2.0 3.0 0.00 0.01 0.01 55 1020.8
20260903160103 88 338 2.0 3.0 0.00 0.01 0.01 54 1020.9
20260903160003 88 338 2.0 3.0 0.00 0.01 0.01 54 1020.8
20260903155903 88 339 2.0 3.0 0.00 0.01 0.01 53 1020.7
20260903155824 88 339 2.0 3.0 0.00 0.01 0.01 53 1020.6
20260903155703 88 340 2.0 3.0 0.00 0.01 0.01 53 1020.7
20260903155603 88 340 2.0 3.0 0.00 0.01 0.01 54 1020.8
20260903155504 88 338 2.0 3.0 0.00 0.01 0.01 54 1020.6
20260903155403 88 336 2.0 3.0 0.00 0.01 0.01 54 1020.6
20260903155306 88 337 2.0 3.0 0.00 0.01 0.01 55 1020.8
20260903155203 87 339 2.0 3.0 0.00 0.01 0.01 54 1020.8
20260903155103 87 331 2.0 3.0 0.00 0.01 0.01 56 1020.8
20260903155003 87 332 2.0 3.0 0.00 0.01 0.01 56 1020.7
20260903154903 88 328 2.0 3.0 0.00 0.01 0.01 56 1020.8
20260903154803 88 332 2.0 4.0 0.00 0.01 0.01 54 1020.8
20260903154724 88 331 2.0 4.0 0.00 0.01 0.01 55 1020.9
20260903154603 88 336 2.0 4.0 0.00 0.01 0.01 55 1020.7
20260903154524 88 338 2.0 4.0 0.00 0.01 0.01 55 1020.9
20260903154403 88 339 2.0 4.0 0.00 0.01 0.01 55 1020.8
20260903154304 88 341 2.0 4.0 0.00 0.01 0.01 55 1020.8
20260903154224 88 341 2.0 4.0 0.00 0.01 0.01 55 1020.8
20260903154124 87 342 2.0 4.0 0.00 0.01 0.01 55 1020.7
20260903154003 87 350 2.0 4.0 0.00 0.01 0.01 57 1020.8
20260903153903 87 351 2.0 4.0 0.00 0.01 0.01 57 1020.8
20260903153804 87 356 2.0 4.0 0.00 0.01 0.01 57 1020.8
20260903153703 87 356 2.0 4.0 0.00 0.01 0.01 57 1020.7
20260903153603 87 356 2.0 4.0 0.00 0.01 0.01 56 1020.8
20260903153503 87 355 2.0 4.0 0.00 0.01 0.01 56 1020.8
20260903153403 87 354 2.0 4.0 0.00 0.01 0.01 56 1020.8
20260903153303 87 354 2.0 4.0 0.00 0.01 0.01 57 1020.8
20260903153203 86 356 2.0 4.0 0.00 0.01 0.01 57 1020.9
20260903153103 86 356 2.0 4.0 0.00 0.01 0.01 59 1020.8
20260903153025 86 356 2.0 4.0 0.00 0.01 0.01 59 1020.8
20260903152903 87 353 3.0 4.0 0.00 0.01 0.01 57 1020.7
20260903152803 87 352 3.0 4.0 0.00 0.01 0.01 55 1020.9
20260903152704 87 353 2.0 4.0 0.00 0.01 0.01 56 1020.7
20260903152604 87 351 2.0 4.0 0.00 0.01 0.01 55 1020.9
20260903152503 87 350 2.0 3.0 0.00 0.01 0.01 58 1020.9
20260903152403 87 348 2.0 3.0 0.00 0.01 0.01 57 1020.9
20260903152324 87 348 2.0 3.0 0.00 0.01 0.01 56 1020.8
20260903152224 87 347 2.0 3.0 0.00 0.01 0.01 56 1020.8
20260903152103 87 344 2.0 3.0 0.00 0.01 0.01 56 1020.9
20260903152003 87 345 2.0 3.0 0.00 0.01 0.01 56 1021.0
20260903151903 87 347 2.0 3.0 0.00 0.01 0.01 57 1020.9
20260903151803 88 348 2.0 3.0 0.00 0.01 0.01 55 1020.9
20260903151703 88 348 2.0 3.0 0.00 0.01 0.01 56 1021.0
20260903151603 88 348 2.0 3.0 0.00 0.01 0.01 55 1021.0
20260903151524 88 349 2.0 3.0 0.00 0.01 0.01 55 1021.0
20260903151425 88 343 2.0 3.0 0.00 0.01 0.01 57 1021.0
20260903151303 87 346 2.0 3.0 0.00 0.01 0.01 57 1021.0
20260903151203 87 349 2.0 3.0 0.00 0.01 0.01 57 1021.1
20260903151102 87 351 2.0 4.0 0.00 0.01 0.01 56 1021.0
20260903151003 86 353 2.0 4.0 0.00 0.01 0.01 58 1021.1
20260903150924 86 353 2.0 4.0 0.00 0.01 0.01 58 1021.1
20260903150803 86 344 2.0 4.0 0.00 0.01 0.01 58 1021.2
20260903150703 86 342 2.0 4.0 0.00 0.01 0.01 57 1021.1
20260903150603 86 345 2.0 4.0 0.00 0.01 0.01 62 1021.3
20260903150503 86 344 2.0 4.0 0.00 0.01 0.01 58 1021.3
20260903150424 86 347 2.0 4.0 0.00 0.01 0.01 59 1021.3
20260903150303 87 344 2.0 4.0 0.00 0.01 0.01 59 1021.2
20260903150203 87 337 2.0 4.0 0.00 0.01 0.01 58 1021.2
20260903150003 87 330 2.0 3.0 0.00 0.01 0.01 58 1021.3
20260903145903 87 329 2.0 3.0 0.00 0.01 0.01 58 1021.2
20260903145802 87 337 2.0 3.0 0.00 0.01 0.01 60 1021.2
20260903145725 87 337 2.0 3.0 0.00 0.01 0.01 60 1021.4
20260903145603 87 332 2.0 3.0 0.00 0.01 0.01 62 1021.4
20260903145503 87 326 2.0 3.0 0.00 0.01 0.01 59 1021.4
20260903145403 87 328 2.0 3.0 0.00 0.01 0.01 60 1021.3
20260903145305 87 329 2.0 3.0 0.00 0.01 0.01 62 1021.4
20260903145203 87 331 2.0 3.0 0.00 0.01 0.01 60 1021.3
20260903145103 87 333 2.0 6.0 0.00 0.01 0.01 60 1021.3
20260903145003 87 332 2.0 6.0 0.00 0.01 0.01 60 1021.3
20260903144902 87 329 2.0 6.0 0.00 0.01 0.01 59 1021.4
20260903144802 87 330 2.0 6.0 0.00 0.01 0.01 61 1021.5
20260903144703 87 331 2.0 6.0 0.00 0.01 0.01 60 1021.4
20260903144603 87 331 2.0 6.0 0.00 0.01 0.01 60 1021.3
20260903144503 87 324 2.0 6.0 0.00 0.01 0.01 60 1021.4
20260903144403 87 325 2.0 6.0 0.00 0.01 0.01 62 1021.4
20260903144303 87 328 2.0 6.0 0.00 0.01 0.01 61 1021.3
20260903144203 87 328 2.0 6.0 0.00 0.01 0.01 60 1021.5
20260903144103 87 328 2.0 6.0 0.00 0.01 0.01 60 1021.5
20260903144003 86 329 2.0 4.0 0.00 0.01 0.01 60 1021.4
20260903143903 86 329 2.0 4.0 0.00 0.01 0.01 59 1021.4
20260903143803 87 324 2.0 4.0 0.00 0.01 0.01 59 1021.5
20260903143702 87 324 2.0 4.0 0.00 0.01 0.01 59 1021.3
20260903143603 87 322 2.0 4.0 0.00 0.01 0.01 59 1021.4
20260903143503 87 325 2.0 4.0 0.00 0.01 0.01 60 1021.6
20260903143403 87 333 2.0 4.0 0.00 0.01 0.01 62 1021.5
20260903143303 87 331 2.0 4.0 0.00 0.01 0.01 59 1021.3
20260903143203 87 327 2.0 4.0 0.00 0.01 0.01 62 1021.6
20260903143103 87 324 2.0 4.0 0.00 0.01 0.01 61 1021.5
20260903143003 87 325 2.0 4.0 0.00 0.01 0.01 61 1021.6
20260903142903 87 325 2.0 4.0 0.00 0.01 0.01 61 1021.6
20260903142803 87 325 2.0 4.0 0.00 0.01 0.01 58 1021.5
20260903142703 87 335 2.0 3.0 0.00 0.01 0.01 60 1021.4
20260903142624 87 336 2.0 4.0 0.00 0.01 0.01 59 1021.5
20260903142503 88 336 2.0 4.0 0.00 0.01 0.01 59 1021.5
20260903142424 88 337 2.0 4.0 0.00 0.01 0.01 58 1021.5
20260903142306 88 339 2.0 4.0 0.00 0.01 0.01 59 1021.5
20260903142224 87 342 2.0 4.0 0.00 0.01 0.01 60 1021.5
20260903142103 87 349 2.0 4.0 0.00 0.01 0.01 60 1021.7
20260903142003 87 351 2.0 4.0 0.00 0.01 0.01 59 1021.5
20260903141903 87 352 2.0 4.0 0.00 0.01 0.01 59 1021.4
20260903141824 87 352 2.0 4.0 0.00 0.01 0.01 59 1021.6
20260903141702 87 355 2.0 4.0 0.00 0.01 0.01 60 1021.6
20260903141603 87 355 2.0 4.0 0.00 0.01 0.01 59 1021.5
20260903141503 86 358 2.0 4.0 0.00 0.01 0.01 60 1021.4
20260903141403 87 359 2.0 4.0 0.00 0.01 0.01 59 1021.4
20260903141303 87 351 2.0 4.0 0.00 0.01 0.01 61 1021.4
20260903141203 87 352 2.0 4.0 0.00 0.01 0.01 59 1021.4
20260903141103 87 347 2.0 4.0 0.00 0.01 0.01 61 1021.5
20260903141003 87 347 2.0 4.0 0.00 0.01 0.01 58 1021.6
20260903140902 87 349 2.0 4.0 0.00 0.01 0.01 60 1021.5
20260903140803 87 348 2.0 4.0 0.00 0.01 0.01 59 1021.5
20260903140703 87 348 2.0 4.0 0.00 0.01 0.01 59 1021.5
20260903140603 87 348 2.0 4.0 0.00 0.01 0.01 59 1021.7
20260903140503 87 350 2.0 4.0 0.00 0.01 0.01 59 1021.5
20260903140403 87 351 2.0 6.0 0.00 0.01 0.01 57 1021.5
20260903140303 87 351 2.0 6.0 0.00 0.01 0.01 58 1021.4
20260903140203 87 358 2.0 6.0 0.00 0.01 0.01 58 1021.5
20260903140003 87 357 2.0 6.0 0.00 0.01 0.01 58 1021.4
20260903135903 86 357 2.0 6.0 0.00 0.01 0.01 59 1021.5
20260903135803 86 357 2.0 6.0 0.00 0.01 0.01 58 1021.7
20260903135703 86 357 2.0 6.0 0.00 0.01 0.01 57 1021.5
20260903135603 86 357 2.0 6.0 0.00 0.01 0.01 58 1021.5
20260903135503 86 356 2.0 6.0 0.00 0.01 0.01 58 1021.4
20260903135403 86 356 2.0 6.0 0.00 0.01 0.01 58 1021.5
20260903135306 87 357 2.0 4.0 0.00 0.01 0.01 58 1021.4
20260903135203 87 356 2.0 4.0 0.00 0.01 0.01 59 1021.8
20260903135103 87 358 2.0 4.0 0.00 0.01 0.01 58 1021.7
20260903135003 87 358 2.0 4.0 0.00 0.01 0.01 59 1021.5
20260903134903 87 355 1.0 4.0 0.00 0.01 0.01 62 1021.5
20260903134825 86 355 2.0 4.0 0.00 0.01 0.01 61 1021.6
20260903134703 86 354 2.0 4.0 0.00 0.01 0.01 61 1021.5
20260903134603 86 354 2.0 4.0 0.00 0.01 0.01 61 1021.7
20260903134524 86 355 2.0 4.0 0.00 0.01 0.01 58 1021.8
20260903134403 87 356 2.0 3.0 0.00 0.01 0.01 61 1021.5
20260903134303 87 355 2.0 3.0 0.00 0.01 0.01 59 1021.7
20260903134203 86 354 2.0 3.0 0.00 0.01 0.01 60 1021.5
20260903134103 86 356 2.0 6.0 0.00 0.01 0.01 60 1021.5
20260903134003 86 357 2.0 6.0 0.00 0.01 0.01 59 1021.4
20260903133903 85 356 2.0 6.0 0.00 0.01 0.01 60 1021.6
20260903133803 85 358 2.0 6.0 0.00 0.01 0.01 60 1021.7
20260903133703 85 358 2.0 6.0 0.00 0.01 0.01 61 1021.5
20260903133603 85 359 2.0 6.0 0.00 0.01 0.01 61 1021.7
20260903133503 85 356 2.0 6.0 0.00 0.01 0.01 61 1021.6
20260903133403 85 357 2.0 6.0 0.00 0.01 0.01 60 1021.8
20260903133303 85 360 2.0 6.0 0.00 0.01 0.01 61 1021.6
20260903133203 85 359 2.0 6.0 0.00 0.01 0.01 60 1021.6
20260903133124 85 2 2.0 4.0 0.00 0.01 0.01 61 1021.6
20260903133003 85 3 2.0 4.0 0.00 0.01 0.01 62 1021.6
20260903132903 85 5 2.0 4.0 0.00 0.01 0.01 63 1021.8
20260903132803 85 3 2.0 4.0 0.00 0.01 0.01 61 1021.7
20260903132724 85 1 2.0 4.0 0.00 0.01 0.01 62 1021.7
20260903132603 85 360 2.0 4.0 0.00 0.01 0.01 61 1021.7
20260903132503 85 3 2.0 4.0 0.00 0.01 0.01 63 1021.7
20260903132403 85 358 2.0 4.0 0.00 0.01 0.01 61 1021.7
20260903132306 85 356 1.0 3.0 0.00 0.01 0.01 61 1021.5
20260903132203 86 357 1.0 3.0 0.00 0.01 0.01 60 1021.7
20260903132124 86 353 1.0 3.0 0.00 0.01 0.01 62 1021.8
20260903132024 86 353 1.0 3.0 0.00 0.01 0.01 62 1021.8
20260903131903 85 341 2.0 4.0 0.00 0.01 0.01 63 1021.9
20260903131803 85 342 2.0 4.0 0.00 0.01 0.01 60 1021.7
20260903131703 85 342 2.0 4.0 0.00 0.01 0.01 60 1021.7
20260903131603 85 344 2.0 4.0 0.00 0.01 0.01 61 1021.8
20260903131503 85 347 2.0 4.0 0.00 0.01 0.01 60 1021.7
20260903131403 85 349 2.0 4.0 0.00 0.01 0.01 62 1021.7
20260903131303 85 348 2.0 4.0 0.00 0.01 0.01 61 1021.8
20260903131203 85 342 2.0 4.0 0.00 0.01 0.01 60 1021.7
20260903131103 85 341 2.0 4.0 0.00 0.01 0.01 62 1021.7
20260903131003 85 340 2.0 4.0 0.00 0.01 0.01 60 1021.6
20260903130903 85 350 2.0 3.0 0.00 0.01 0.01 61 1021.9
20260903130803 85 345 2.0 3.0 0.00 0.01 0.01 62 1021.6
20260903130703 85 342 2.0 3.0 0.00 0.01 0.01 62 1021.8
20260903130603 85 339 2.0 3.0 0.00 0.01 0.01 64 1021.7
20260903130503 85 339 2.0 3.0 0.00 0.01 0.01 64 1021.7
20260903130403 84 337 2.0 3.0 0.00 0.01 0.01 62 1021.8
20260903130303 84 338 2.0 3.0 0.00 0.01 0.01 63 1021.9
20260903130204 84 339 2.0 4.0 0.00 0.01 0.01 61 1021.6
20260903130003 84 340 2.0 4.0 0.00 0.01 0.01 64 1021.9
20260903125903 83 328 2.0 4.0 0.00 0.01 0.01 64 1022.0
20260903125803 83 321 2.0 4.0 0.00 0.01 0.01 65 1021.7
20260903125703 83 318 2.0 4.0 0.00 0.01 0.01 64 1021.9
20260903125603 83 317 2.0 4.0 0.00 0.01 0.01 64 1021.8
20260903125503 83 315 2.0 4.0 0.00 0.01 0.01 65 1021.7
20260903125403 83 308 2.0 4.0 0.00 0.01 0.01 63 1021.9
20260903125305 83 308 2.0 4.0 0.00 0.01 0.01 63 1021.9
20260903125203 83 299 2.0 4.0 0.00 0.01 0.01 63 1021.8
20260903125103 83 288 2.0 4.0 0.00 0.01 0.01 66 1021.9
20260903125003 83 286 2.0 4.0 0.00 0.01 0.01 66 1021.9
20260903124903 83 282 3.0 4.0 0.00 0.01 0.01 64 1021.9
20260903124824 83 281 2.0 4.0 0.00 0.01 0.01 66 1021.9
20260903124703 83 270 2.0 4.0 0.00 0.01 0.01 64 1021.9
20260903124603 83 232 2.0 4.0 0.00 0.01 0.01 65 1022.0
20260903124503 83 199 2.0 4.0 0.00 0.01 0.01 65 1022.0
20260903124403 83 162 3.0 4.0 0.00 0.01 0.01 65 1022.0
20260903124303 83 144 3.0 4.0 0.00 0.01 0.01 66 1022.0
20260903124203 83 135 3.0 4.0 0.00 0.01 0.01 67 1021.9
20260903124103 83 135 3.0 4.0 0.00 0.01 0.01 67 1021.9
20260903124003 83 129 3.0 4.0 0.00 0.01 0.01 66 1022.0
20260903123903 83 126 3.0 4.0 0.00 0.01 0.01 64 1021.7
20260903123803 83 126 3.0 4.0 0.00 0.01 0.01 66 1021.9
20260903123703 83 127 3.0 4.0 0.00 0.01 0.01 66 1022.1
20260903123603 83 126 3.0 4.0 0.00 0.01 0.01 66 1022.0
20260903123524 83 126 3.0 4.0 0.00 0.01 0.01 65 1022.0
20260903123403 83 126 2.0 4.0 0.00 0.01 0.01 64 1021.9
20260903123303 83 126 2.0 4.0 0.00 0.01 0.01 65 1022.0
20260903123203 83 126 2.0 4.0 0.00 0.01 0.01 67 1022.0
20260903123103 83 126 2.0 4.0 0.00 0.01 0.01 67 1021.9
20260903123003 83 126 2.0 4.0 0.00 0.01 0.01 68 1022.0
20260903122903 83 126 2.0 4.0 0.00 0.01 0.01 64 1021.8
20260903122803 83 126 2.0 4.0 0.00 0.01 0.01 63 1022.0
20260903122703 84 126 2.0 4.0 0.00 0.01 0.01 63 1021.9
20260903122603 84 126 2.0 4.0 0.00 0.01 0.01 63 1021.8
20260903122503 84 126 2.0 4.0 0.00 0.01 0.01 66 1021.8
20260903122424 84 126 2.0 4.0 0.00 0.01 0.01 63 1021.8
20260903122305 84 126 2.0 4.0 0.00 0.01 0.01 62 1021.8
20260903122224 84 126 2.0 4.0 0.00 0.01 0.01 65 1022.0
20260903122103 83 126 2.0 4.0 0.00 0.01 0.01 65 1021.9
20260903122003 83 126 3.0 4.0 0.00 0.01 0.01 65 1021.9
20260903121903 83 126 3.0 6.0 0.00 0.01 0.01 65 1021.9
20260903121803 82 126 3.0 6.0 0.00 0.01 0.01 65 1021.9
20260903121703 82 126 3.0 6.0 0.00 0.01 0.01 65 1022.1
20260903121603 82 126 3.0 6.0 0.00 0.01 0.01 65 1021.8
20260903121503 82 126 3.0 6.0 0.00 0.01 0.01 63 1021.9
20260903121424 83 126 3.0 6.0 0.00 0.01 0.01 63 1021.9
20260903121324 83 126 3.0 6.0 0.00 0.01 0.01 64 1022.0
20260903121203 82 126 3.0 6.0 0.00 0.01 0.01 64 1022.0
20260903121103 82 126 3.0 6.0 0.00 0.01 0.01 65 1022.0
20260903121024 82 126 3.0 6.0 0.00 0.01 0.01 66 1021.9
20260903120903 82 126 3.0 6.0 0.00 0.01 0.01 64 1022.1
20260903120803 83 125 3.0 6.0 0.00 0.01 0.01 65 1022.2
20260903120724 82 125 3.0 6.0 0.00 0.01 0.01 65 1022.1
20260903120603 82 125 2.0 6.0 0.00 0.01 0.01 65 1022.1
20260903120503 82 125 2.0 6.0 0.00 0.01 0.01 69 1022.1
20260903120403 82 125 2.0 6.0 0.00 0.01 0.01 67 1022.2
20260903120324 82 125 2.0 6.0 0.00 0.01 0.01 65 1022.0
20260903120203 83 125 2.0 3.0 0.00 0.01 0.01 65 1022.0
20260903120124 83 125 2.0 3.0 0.00 0.01 0.01 65 1022.1
20260903120003 84 125 1.0 3.0 0.00 0.01 0.01 66 1022.3
20260903115903 84 125 2.0 4.0 0.00 0.01 0.01 63 1022.1
20260903115824 84 125 1.0 4.0 0.00 0.01 0.01 61 1022.1
20260903115703 84 125 1.0 4.0 0.00 0.01 0.01 61 1022.0
20260903115603 84 126 1.0 4.0 0.00 0.01 0.01 60 1022.0
20260903115503 84 126 1.0 4.0 0.00 0.01 0.01 61 1022.0
20260903115403 83 126 1.0 4.0 0.00 0.01 0.01 61 1022.0
20260903115305 83 126 1.0 4.0 0.00 0.01 0.01 60 1022.1
20260903115224 83 126 1.0 4.0 0.00 0.01 0.01 61 1022.0
20260903115125 83 126 1.0 4.0 0.00 0.01 0.01 62 1022.2
20260903115003 83 126 1.0 4.0 0.00 0.01 0.01 60 1022.2
20260903114903 83 126 1.0 4.0 0.00 0.01 0.01 61 1022.2
20260903114803 83 126 1.0 3.0 0.00 0.01 0.01 62 1022.1
20260903114703 82 126 1.0 3.0 0.00 0.01 0.01 64 1022.3
20260903114603 82 126 1.0 3.0 0.00 0.01 0.01 65 1022.1
20260903114503 82 126 1.0 3.0 0.00 0.01 0.01 64 1022.0
20260903114403 82 126 1.0 3.0 0.00 0.01 0.01 64 1022.3
20260903114303 81 126 1.0 3.0 0.00 0.01 0.01 63 1022.2
20260903114224 81 126 1.0 3.0 0.00 0.01 0.01 63 1022.2
20260903114103 82 126 1.0 3.0 0.00 0.01 0.01 62 1022.2
20260903114003 82 126 1.0 3.0 0.00 0.01 0.01 61 1022.2
20260903113903 81 126 1.0 3.0 0.00 0.01 0.01 65 1022.3
20260903113803 81 126 1.0 3.0 0.00 0.01 0.01 63 1022.1
20260903113703 81 126 2.0 3.0 0.00 0.01 0.01 63 1022.2
20260903113603 81 126 2.0 3.0 0.00 0.01 0.01 64 1022.2
20260903113524 81 126 1.0 3.0 0.00 0.01 0.01 63 1022.1
20260903113403 81 126 2.0 3.0 0.00 0.01 0.01 64 1022.2
20260903113303 80 126 2.0 3.0 0.00 0.01 0.01 65 1022.1
20260903113224 80 126 2.0 3.0 0.00 0.01 0.01 65 1022.1
20260903113103 81 125 2.0 3.0 0.00 0.01 0.01 62 1022.2
20260903113024 81 125 2.0 3.0 0.00 0.01 0.01 62 1022.2
20260903112903 81 125 2.0 3.0 0.00 0.01 0.01 62 1022.2
20260903112803 81 125 1.0 3.0 0.00 0.01 0.01 62 1022.1
20260903112703 80 125 1.0 3.0 0.00 0.01 0.01 64 1022.2
20260903112603 80 125 1.0 3.0 0.00 0.01 0.01 63 1022.4
20260903112503 80 125 1.0 3.0 0.00 0.01 0.01 63 1022.2
20260903112403 80 125 2.0 3.0 0.00 0.01 0.01 63 1022.3
20260903112324 80 125 2.0 3.0 0.00 0.01 0.01 64 1022.4
20260903112203 80 125 2.0 3.0 0.00 0.01 0.01 63 1022.2
20260903112103 80 125 1.0 3.0 0.00 0.01 0.01 64 1022.3
20260903112003 81 125 1.0 3.0 0.00 0.01 0.01 62 1022.4
20260903111924 80 125 1.0 3.0 0.00 0.01 0.01 66 1022.4
20260903111803 80 125 1.0 3.0 0.00 0.01 0.01 65 1022.4
20260903111703 80 125 1.0 3.0 0.00 0.01 0.01 64 1022.4
20260903111624 80 125 1.0 3.0 0.00 0.01 0.01 63 1022.4
20260903111503 81 126 1.0 2.0 0.00 0.01 0.01 65 1022.4
20260903111403 81 126 1.0 2.0 0.00 0.01 0.01 62 1022.4
20260903111303 82 126 1.0 2.0 0.00 0.01 0.01 63 1022.3
20260903111203 82 126 1.0 2.0 0.00 0.01 0.01 62 1022.5
20260903111103 82 126 1.0 2.0 0.00 0.01 0.01 62 1022.4
20260903111024 82 126 1.0 2.0 0.00 0.01 0.01 62 1022.4
20260903110924 83 126 1.0 2.0 0.00 0.01 0.01 63 1022.7
20260903110824 83 125 1.0 2.0 0.00 0.01 0.01 61 1022.4
20260903110703 82 125 1.0 2.0 0.00 0.01 0.01 64 1022.6
20260903110603 82 125 1.0 2.0 0.00 0.01 0.01 60 1022.4
20260903110524 82 125 1.0 2.0 0.00 0.01 0.01 63 1022.4
20260903110403 82 125 1.0 2.0 0.00 0.01 0.01 62 1022.4
20260903110303 81 125 1.0 2.0 0.00 0.01 0.01 64 1022.2
20260903110203 81 125 1.0 2.0 0.00 0.01 0.01 63 1022.5
20260903110003 80 125 1.0 3.0 0.00 0.01 0.01 65 1022.3
20260903105903 80 125 1.0 3.0 0.00 0.01 0.01 63 1022.4
20260903105803 80 125 1.0 3.0 0.00 0.01 0.01 64 1022.4
20260903105724 80 125 1.0 3.0 0.00 0.01 0.01 64 1022.4
20260903105603 80 125 1.0 3.0 0.00 0.01 0.01 67 1022.3
20260903105503 80 125 1.0 3.0 0.00 0.01 0.01 66 1022.4
20260903105403 80 125 1.0 3.0 0.00 0.01 0.01 65 1022.6
20260903105324 80 125 1.0 3.0 0.00 0.01 0.01 65 1022.6
20260903105203 80 125 1.0 3.0 0.00 0.01 0.01 66 1022.4
20260903105103 79 125 1.0 3.0 0.00 0.01 0.01 65 1022.4
20260903105003 79 125 1.0 3.0 0.00 0.01 0.01 66 1022.4
20260903104903 78 125 1.0 3.0 0.00 0.01 0.01 66 1022.5
20260903104803 78 125 1.0 2.0 0.00 0.01 0.01 70 1022.5
20260903104724 78 125 1.0 2.0 0.00 0.01 0.01 70 1022.4
20260903104624 78 125 1.0 2.0 0.00 0.01 0.01 68 1022.4
20260903104503 78 125 1.0 2.0 0.00 0.01 0.01 68 1022.4
20260903104403 77 125 1.0 3.0 0.00 0.01 0.01 69 1022.3
20260903104303 77 125 1.0 3.0 0.00 0.01 0.01 72 1022.5
20260903104203 78 125 1.0 3.0 0.00 0.01 0.01 71 1022.7
20260903104103 78 125 1.0 3.0 0.00 0.01 0.01 71 1022.7
20260903104003 78 125 1.0 3.0 0.00 0.01 0.01 71 1022.5
20260903103903 78 125 1.0 3.0 0.00 0.01 0.01 72 1022.5
20260903103803 77 125 1.0 3.0 0.00 0.01 0.01 71 1022.5
20260903103703 77 125 1.0 3.0 0.00 0.01 0.01 72 1022.6
20260903103603 77 125 1.0 3.0 0.00 0.01 0.01 71 1022.5
20260903103503 77 125 1.0 3.0 0.00 0.01 0.01 70 1022.7
20260903103403 76 125 1.0 3.0 0.00 0.01 0.01 71 1022.7
20260903103303 76 125 1.0 2.0 0.00 0.01 0.01 73 1022.7
20260903103203 76 125 1.0 3.0 0.00 0.01 0.01 73 1022.8
20260903103103 76 125 1.0 3.0 0.00 0.01 0.01 74 1022.8
20260903103003 75 125 1.0 3.0 0.00 0.01 0.01 74 1022.8
20260903102903 75 125 2.0 3.0 0.00 0.01 0.01 75 1022.7
20260903102803 75 125 2.0 3.0 0.00 0.01 0.01 74 1022.7
20260903102703 75 125 2.0 3.0 0.00 0.01 0.01 76 1022.8
20260903102603 75 125 2.0 3.0 0.00 0.01 0.01 76 1022.8
20260903102524 75 125 2.0 3.0 0.00 0.01 0.01 75 1022.6
20260903102403 75 122 2.0 3.0 0.00 0.01 0.01 76 1022.8
20260903102324 75 120 2.0 3.0 0.00 0.01 0.01 75 1022.7
20260903102203 75 118 2.0 3.0 0.00 0.01 0.01 75 1022.9
20260903102103 74 127 2.0 3.0 0.00 0.01 0.01 75 1022.8
20260903102003 74 133 2.0 3.0 0.00 0.01 0.01 77 1023.0
20260903101903 74 131 2.0 3.0 0.00 0.01 0.01 77 1022.7
20260903101803 74 132 1.0 3.0 0.00 0.01 0.01 78 1023.0
20260903101703 74 132 1.0 3.0 0.00 0.01 0.01 78 1022.8
20260903101603 74 155 1.0 3.0 0.00 0.01 0.01 76 1022.9
20260903101503 74 276 1.0 3.0 0.00 0.01 0.01 77 1022.9
20260903101403 73 272 1.0 3.0 0.00 0.01 0.01 78 1022.7
20260903101324 73 272 1.0 3.0 0.00 0.01 0.01 78 1022.7
20260903101203 73 58 1.0 3.0 0.00 0.01 0.01 79 1022.7
20260903101103 73 103 2.0 3.0 0.00 0.01 0.01 79 1022.8
20260903101024 73 78 2.0 3.0 0.00 0.01 0.01 80 1022.7
20260903100924 72 63 2.0 3.0 0.00 0.01 0.01 80 1022.9
20260903100803 72 66 2.0 3.0 0.00 0.01 0.01 79 1022.7
20260903100703 72 59 2.0 3.0 0.00 0.01 0.01 80 1022.8
20260903100624 72 68 2.0 3.0 0.00 0.01 0.01 81 1022.9
20260903100503 72 70 2.0 3.0 0.00 0.01 0.01 81 1022.9
20260903100403 72 63 2.0 3.0 0.00 0.01 0.01 81 1022.8
20260903100303 72 52 2.0 3.0 0.00 0.01 0.01 81 1022.9
20260903100203 72 46 1.0 3.0 0.00 0.01 0.01 82 1023.0
20260903100103 72 46 1.0 3.0 0.00 0.01 0.01 82 1023.0
20260903100024 72 34 1.0 3.0 0.00 0.01 0.01 81 1022.9
20260903095903 72 41 1.0 3.0 0.00 0.01 0.01 81 1022.9
20260903095803 72 25 1.0 3.0 0.00 0.01 0.01 84 1023.0
20260903095703 71 25 1.0 3.0 0.00 0.01 0.01 84 1022.9
20260903095624 71 19 1.0 3.0 0.00 0.01 0.01 87 1022.8
20260903095503 70 347 1.0 3.0 0.00 0.01 0.01 88 1022.9
20260903095403 70 300 1.0 3.0 0.00 0.01 0.01 87 1022.9
20260903095305 69 202 1.0 3.0 0.00 0.01 0.01 88 1023.0
20260903095203 69 194 1.0 3.0 0.00 0.01 0.01 90 1022.9
20260903095103 69 194 1.0 3.0 0.00 0.01 0.01 90 1022.9
20260903095003 69 136 1.0 3.0 0.00 0.01 0.01 92 1022.7
20260903094903 68 127 1.0 3.0 0.00 0.01 0.01 95 1022.9
20260903094803 67 83 1.0 3.0 0.00 0.01 0.01 95 1022.7
20260903094703 67 92 1.0 3.0 0.00 0.01 0.01 96 1022.9
20260903094603 67 83 2.0 3.0 0.00 0.01 0.01 97 1022.9
20260903094503 67 83 2.0 3.0 0.00 0.01 0.01 97 1022.9
20260903094403 67 91 2.0 3.0 0.00 0.01 0.01 97 1022.8
20260903094303 67 78 1.0 3.0 0.00 0.01 0.01 99 1022.7
20260903094203 66 61 1.0 2.0 0.00 0.01 0.01 99 1022.8
20260903094103 66 57 1.0 2.0 0.00 0.01 0.01 99 1022.9
20260903094003 66 61 2.0 3.0 0.00 0.01 0.01 99 1022.9
20260903093903 66 79 2.0 3.0 0.00 0.01 0.01 99 1022.9
20260903093803 66 77 2.0 3.0 0.00 0.01 0.01 99 1022.8
20260903093703 66 85 2.0 3.0 0.00 0.01 0.01 99 1022.9
20260903093603 66 353 1.0 3.0 0.00 0.01 0.01 99 1022.7
20260903093503 65 125 2.0 3.0 0.00 0.01 0.01 99 1022.8
20260903093424 65 125 2.0 3.0 0.00 0.01 0.01 99 1022.8
20260903093303 64 241 1.0 3.0 0.00 0.01 0.01 99 1022.9
20260903093203 65 217 2.0 3.0 0.00 0.01 0.01 99 1022.9
20260903093103 65 227 2.0 3.0 0.00 0.01 0.01 99 1022.9
20260903093003 65 241 1.0 3.0 0.00 0.01 0.01 99 1023.1
20260903092903 65 241 1.0 3.0 0.00 0.01 0.01 99 1023.1
20260903092803 65 353 1.0 3.0 0.00 0.01 0.01 99 1022.9
20260903092703 65 25 1.0 3.0 0.00 0.01 0.01 99 1023.0
20260903092603 65 114 2.0 3.0 0.00 0.01 0.01 99 1023.0
20260903092503 65 232 2.0 3.0 0.00 0.01 0.01 99 1023.0
20260903092403 65 274 2.0 3.0 0.00 0.01 0.01 99 1022.9
20260903092306 65 255 2.0 3.0 0.00 0.01 0.01 99 1022.8
20260903092203 65 264 2.0 3.0 0.00 0.01 0.01 99 1023.0
20260903092103 64 286 2.0 3.0 0.00 0.01 0.01 99 1022.9
20260903092003 64 320 2.0 3.0 0.00 0.01 0.01 99 1022.9
20260903091903 64 47 2.0 3.0 0.00 0.01 0.01 99 1022.8
20260903091824 64 217 2.0 3.0 0.00 0.01 0.01 99 1023.1
20260903091703 64 222 2.0 3.0 0.00 0.01 0.01 99 1022.9
20260903091603 64 182 2.0 3.0 0.00 0.01 0.01 99 1022.9
20260903091503 64 189 2.0 4.0 0.00 0.01 0.01 99 1023.0
20260903091403 64 145 2.0 4.0 0.00 0.01 0.01 99 1022.9
20260903091303 64 136 2.0 4.0 0.00 0.01 0.01 99 1023.1
20260903091203 64 92 2.0 4.0 0.00 0.01 0.01 99 1023.0
20260903091103 64 87 2.0 4.0 0.00 0.01 0.01 99 1022.9
20260903091003 64 86 2.0 4.0 0.00 0.01 0.01 99 1022.9
20260903090903 64 73 2.0 4.0 0.00 0.01 0.01 99 1022.8
20260903090803 64 82 2.0 4.0 0.00 0.01 0.01 99 1022.9
20260903090703 64 52 1.0 4.0 0.00 0.01 0.01 99 1023.0
20260903090603 64 38 1.0 4.0 0.00 0.01 0.01 99 1023.1
20260903090503 64 36 1.0 3.0 0.00 0.01 0.01 99 1023.0
20260903090403 63 26 1.0 3.0 0.00 0.01 0.01 99 1023.0
20260903090324 63 22 1.0 3.0 0.00 0.01 0.01 99 1023.1
20260903090203 64 21 1.0 3.0 0.00 0.01 0.01 99 1023.0
20260903090003 64 357 1.0 2.0 0.00 0.01 0.01 99 1022.9
20260903085924 63 353 1.0 2.0 0.00 0.01 0.01 99 1023.0
20260903085803 63 355 1.0 2.0 0.00 0.01 0.01 99 1023.0
20260903085703 63 353 1.0 2.0 0.00 0.01 0.01 99 1023.0
20260903085603 63 359 1.0 2.0 0.00 0.01 0.01 99 1023.1
20260903085524 63 9 1.0 2.0 0.00 0.01 0.01 99 1023.0
20260903085403 63 16 0.0 2.0 0.00 0.01 0.01 99 1023.0
20260903085306 63 32 0.0 1.0 0.00 0.01 0.01 99 1022.9
20260903085203 63 32 0.0 1.0 0.00 0.01 0.01 99 1022.9
20260903085103 63 32 0.0 1.0 0.00 0.01 0.01 99 1022.9
20260903085003 63 33 0.0 1.0 0.00 0.01 0.01 99 1022.9
20260903084903 63 33 0.0 1.0 0.00 0.01 0.01 99 1022.9
20260903084803 63 28 0.0 1.0 0.00 0.01 0.01 99 1022.9
20260903084703 64 28 0.0 1.0 0.00 0.01 0.01 99 1022.9
20260903084603 64 37 0.0 1.0 0.00 0.01 0.01 99 1022.8
20260903084503 64 38 0.0 1.0 0.00 0.01 0.01 99 1023.0
20260903084403 64 39 0.0 1.0 0.00 0.01 0.01 99 1022.9
20260903084303 64 41 0.0 2.0 0.00 0.01 0.01 99 1022.9
20260903084224 64 41 0.0 2.0 0.00 0.01 0.01 99 1022.9
20260903084103 63 43 1.0 2.0 0.00 0.01 0.01 99 1023.0
20260903084003 63 47 1.0 2.0 0.00 0.01 0.01 99 1023.0
20260903083903 63 50 1.0 2.0 0.00 0.01 0.01 99 1022.8
20260903083803 62 58 1.0 3.0 0.00 0.01 0.01 99 1022.9
20260903083703 62 57 1.0 3.0 0.00 0.01 0.01 99 1022.9
20260903083624 62 57 1.0 3.0 0.00 0.01 0.01 99 1023.0
20260903083503 61 58 1.0 3.0 0.00 0.01 0.01 99 1022.9
20260903083424 61 56 1.0 3.0 0.00 0.01 0.01 99 1023.0
20260903083303 61 55 1.0 3.0 0.00 0.01 0.01 99 1023.0
20260903083203 61 54 1.0 3.0 0.00 0.01 0.01 99 1023.0
20260903083103 61 54 1.0 3.0 0.00 0.01 0.01 99 1023.1
20260903083003 60 51 1.0 3.0 0.00 0.01 0.01 99 1023.1
20260903082903 60 51 1.0 3.0 0.00 0.01 0.01 99 1023.1
20260903082803 61 48 1.0 3.0 0.00 0.01 0.01 99 1023.0
20260903082703 61 35 1.0 2.0 0.00 0.01 0.01 99 1022.9
20260903082603 61 30 1.0 2.0 0.00 0.01 0.01 99 1023.0
20260903082503 61 22 0.0 1.0 0.00 0.01 0.01 99 1023.0
20260903082403 61 18 0.0 1.0 0.00 0.01 0.01 99 1023.2
20260903082306 61 21 0.0 1.0 0.00 0.01 0.01 99 1023.1
20260903082203 61 19 0.0 1.0 0.00 0.01 0.01 99 1023.1
20260903082103 61 26 0.0 1.0 0.00 0.01 0.01 99 1023.1
20260903082003 60 26 0.0 1.0 0.00 0.01 0.01 99 1023.1
20260903081903 60 26 0.0 1.0 0.00 0.01 0.01 99 1023.0
20260903081803 60 26 0.0 1.0 0.00 0.01 0.01 99 1023.2
20260903081703 60 26 0.0 1.0 0.00 0.01 0.01 99 1023.1
20260903081603 60 27 0.0 1.0 0.00 0.01 0.01 99 1023.2
20260903081503 60 0 0.0 0.0 0.00 0.01 0.01 99 1023.2
20260903081403 60 39 0.0 1.0 0.00 0.01 0.01 99 1023.2
20260903081303 60 10 0.0 2.0 0.00 0.01 0.01 99 1023.2
20260903081224 60 360 0.0 2.0 0.00 0.01 0.01 99 1023.1
20260903081103 60 358 0.0 2.0 0.00 0.01 0.01 99 1023.2
20260903081003 60 357 0.0 2.0 0.00 0.01 0.01 99 1023.1
20260903080903 60 356 1.0 2.0 0.00 0.01 0.01 99 1023.1
20260903080824 60 349 1.0 2.0 0.00 0.01 0.01 99 1023.0
20260903080703 59 350 1.0 2.0 0.00 0.01 0.01 99 1023.2
20260903080603 59 354 1.0 2.0 0.00 0.01 0.01 99 1023.1
20260903080524 59 353 1.0 2.0 0.00 0.01 0.01 99 1023.3
20260903080403 60 351 1.0 2.0 0.00 0.01 0.01 99 1023.0
20260903080303 60 358 1.0 2.0 0.00 0.01 0.01 99 1022.9
20260903080203 59 9 1.0 2.0 0.00 0.01 0.01 99 1023.1
20260903080103 59 9 1.0 2.0 0.00 0.01 0.01 99 1023.1
20260903080024 59 16 1.0 2.0 0.00 0.01 0.01 99 1022.9
20260903075925 59 21 1.0 2.0 0.00 0.01 0.01 99 1022.8
20260903075803 59 22 1.0 2.0 0.00 0.01 0.01 99 1023.1
20260903075724 59 31 1.0 2.0 0.00 0.01 0.01 99 1023.0
20260903075603 59 34 1.0 2.0 0.00 0.01 0.01 99 1023.0
20260903075503 59 34 1.0 2.0 0.00 0.01 0.01 99 1023.0
20260903075403 59 38 1.0 2.0 0.00 0.01 0.01 99 1023.1
20260903075306 59 41 1.0 2.0 0.00 0.01 0.01 99 1022.9
20260903075203 59 41 1.0 2.0 0.00 0.01 0.01 99 1023.2
20260903075103 59 36 1.0 2.0 0.00 0.01 0.01 99 1023.1
20260903075003 59 33 0.0 1.0 0.00 0.01 0.01 99 1023.0
20260903074903 59 32 0.0 1.0 0.00 0.01 0.01 99 1023.0
20260903074803 59 35 0.0 1.0 0.00 0.01 0.01 99 1023.0
20260903074724 59 35 0.0 1.0 0.00 0.01 0.01 99 1023.0
20260903074624 58 35 0.0 1.0 0.00 0.01 0.01 99 1023.0
20260903074503 58 35 1.0 1.0 0.00 0.01 0.01 99 1022.9
20260903074403 59 37 1.0 1.0 0.00 0.01 0.01 99 1022.9
20260903074303 59 42 1.0 2.0 0.00 0.01 0.01 99 1023.0
20260903074203 59 47 1.0 2.0 0.00 0.01 0.01 99 1022.9
20260903074103 59 48 1.0 2.0 0.00 0.01 0.01 99 1023.0
20260903074024 59 51 1.0 2.0 0.00 0.01 0.01 99 1022.9
20260903073903 59 53 1.0 2.0 0.00 0.01 0.01 99 1023.0
20260903073803 58 59 1.0 3.0 0.00 0.01 0.01 99 1023.1
20260903073703 58 66 2.0 3.0 0.00 0.01 0.01 99 1023.0
20260903073603 58 67 2.0 3.0 0.00 0.01 0.01 99 1022.9
20260903073503 58 69 2.0 3.0 0.00 0.01 0.01 99 1022.9
20260903073403 58 68 2.0 3.0 0.00 0.01 0.01 99 1023.1
20260903073303 58 67 2.0 3.0 0.00 0.01 0.01 99 1023.0
20260903073203 58 67 2.0 3.0 0.00 0.01 0.01 99 1022.9
20260903073103 58 67 2.0 3.0 0.00 0.01 0.01 99 1022.9
20260903073024 58 67 2.0 3.0 0.00 0.01 0.01 99 1022.9
20260903072924 58 67 2.0 3.0 0.00 0.01 0.01 99 1022.9
20260903072803 58 66 2.0 3.0 0.00 0.01 0.01 99 1022.7
20260903072703 58 66 2.0 3.0 0.00 0.01 0.01 99 1022.7
20260903072603 58 58 1.0 2.0 0.00 0.01 0.01 99 1022.8
20260903072503 58 51 1.0 2.0 0.00 0.01 0.01 99 1022.9
20260903072403 58 47 1.0 2.0 0.00 0.01 0.01 99 1022.8
20260903072306 58 42 1.0 2.0 0.00 0.01 0.01 99 1022.7
20260903072203 58 39 1.0 1.0 0.00 0.01 0.01 99 1022.8
20260903072103 58 38 1.0 1.0 0.00 0.01 0.01 99 1022.9